| time (UTC) | temp F | wind direction | speed knots | gust knots | rain 1hr in | rain 24hr in | rain mn in | humidity % | barometer mb |
| 20260906222443 | 82 | 150 | 4.3 | 9.6 | 0.00 | 0.01 | 0.01 | 37 | 1017.2 |
| 20260906222245 | 82 | 123 | 4.3 | 8.7 | 0.00 | 0.01 | 0.01 | 37 | 1017.2 |
| 20260906222141 | 82 | 175 | 4.3 | 8.7 | 0.00 | 0.01 | 0.01 | 38 | 1017.4 |
| 20260906222043 | 82 | 105 | 4.3 | 10.4 | 0.00 | 0.01 | 0.01 | 38 | 1017.2 |
| 20260906221842 | 82 | 93 | 4.3 | 10.4 | 0.00 | 0.01 | 0.01 | 38 | 1017.4 |
| 20260906221645 | 82 | 149 | 5.2 | 14.8 | 0.00 | 0.01 | 0.01 | 38 | 1017.4 |
| 20260906221640 | 82 | 109 | 6.1 | 14.8 | 0.00 | 0.01 | 0.01 | 38 | 1017.4 |
| 20260906221442 | 82 | 169 | 6.1 | 14.8 | 0.00 | 0.01 | 0.01 | 38 | 1017.4 |
| 20260906221244 | 82 | 175 | 6.1 | 14.8 | 0.00 | 0.01 | 0.01 | 39 | 1017.5 |
| 20260906221140 | 82 | 155 | 6.1 | 14.8 | 0.00 | 0.01 | 0.01 | 39 | 1017.4 |
| 20260906221043 | 82 | 194 | 6.1 | 14.8 | 0.00 | 0.01 | 0.01 | 39 | 1017.5 |
| 20260906220843 | 82 | 207 | 7.0 | 14.8 | 0.00 | 0.01 | 0.01 | 39 | 1017.5 |
| 20260906220640 | 82 | 190 | 7.0 | 13.0 | 0.00 | 0.01 | 0.01 | 40 | 1017.5 |
| 20260906220443 | 82 | 62 | 7.0 | 13.0 | 0.00 | 0.01 | 0.01 | 41 | 1017.5 |
| 20260906220243 | 82 | 191 | 7.0 | 13.0 | 0.00 | 0.01 | 0.01 | 40 | 1017.5 |
| 20260906220140 | 82 | 193 | 7.0 | 13.0 | 0.00 | 0.01 | 0.01 | 40 | 1017.5 |
| 20260906220043 | 82 | 182 | 7.0 | 13.0 | 0.00 | 0.01 | 0.01 | 40 | 1017.5 |
| 20260906215844 | 82 | 194 | 7.0 | 13.0 | 0.00 | 0.01 | 0.01 | 40 | 1017.5 |
| 20260906215640 | 82 | 194 | 6.1 | 13.0 | 0.00 | 0.01 | 0.01 | 40 | 1017.5 |
| 20260906215443 | 82 | 196 | 6.1 | 10.4 | 0.00 | 0.01 | 0.01 | 39 | 1017.5 |
| 20260906215242 | 82 | 161 | 5.2 | 10.4 | 0.00 | 0.01 | 0.01 | 40 | 1017.6 |
| 20260906215140 | 82 | 160 | 5.2 | 9.6 | 0.00 | 0.01 | 0.01 | 39 | 1017.6 |
| 20260906215043 | 82 | 207 | 5.2 | 9.6 | 0.00 | 0.01 | 0.01 | 39 | 1017.6 |
| 20260906214842 | 82 | 178 | 6.1 | 10.4 | 0.00 | 0.01 | 0.01 | 38 | 1017.6 |
| 20260906214645 | 82 | 231 | 6.1 | 11.3 | 0.00 | 0.01 | 0.01 | 38 | 1017.7 |
| 20260906214641 | 82 | 207 | 6.1 | 11.3 | 0.00 | 0.01 | 0.01 | 38 | 1017.7 |
| 20260906214444 | 83 | 177 | 7.0 | 11.3 | 0.00 | 0.01 | 0.01 | 38 | 1017.7 |
| 20260906214244 | 83 | 82 | 7.8 | 13.9 | 0.00 | 0.01 | 0.01 | 38 | 1017.7 |
| 20260906214142 | 83 | 88 | 7.8 | 13.9 | 0.00 | 0.01 | 0.01 | 38 | 1017.8 |
| 20260906214047 | 82 | 119 | 8.7 | 13.9 | 0.00 | 0.01 | 0.01 | 38 | 1017.8 |
| 20260906213840 | 82 | 88 | 7.8 | 13.9 | 0.00 | 0.01 | 0.01 | 38 | 1017.8 |
| 20260906213640 | 83 | 105 | 7.0 | 13.9 | 0.00 | 0.01 | 0.01 | 38 | 1017.8 |
| 20260906213442 | 82 | 98 | 7.0 | 13.9 | 0.00 | 0.01 | 0.01 | 38 | 1017.8 |
| 20260906213241 | 82 | 87 | 6.1 | 13.0 | 0.00 | 0.01 | 0.01 | 38 | 1018.0 |
| 20260906213139 | 82 | 80 | 5.2 | 13.0 | 0.00 | 0.01 | 0.01 | 38 | 1018.0 |
| 20260906213039 | 82 | 92 | 5.2 | 13.0 | 0.00 | 0.01 | 0.01 | 38 | 1018.1 |
| 20260906212839 | 83 | 114 | 5.2 | 10.4 | 0.00 | 0.01 | 0.01 | 38 | 1018.1 |
| 20260906212642 | 83 | 113 | 6.1 | 11.3 | 0.00 | 0.01 | 0.01 | 38 | 1018.0 |
| 20260906212638 | 83 | 124 | 6.1 | 11.3 | 0.00 | 0.01 | 0.01 | 38 | 1018.0 |
| 20260906212438 | 83 | 109 | 5.2 | 12.2 | 0.00 | 0.01 | 0.01 | 38 | 1018.1 |
| 20260906212237 | 83 | 167 | 5.2 | 12.2 | 0.00 | 0.01 | 0.01 | 37 | 1018.1 |
| 20260906212137 | 83 | 100 | 5.2 | 12.2 | 0.00 | 0.01 | 0.01 | 37 | 1018.1 |
| 20260906212037 | 83 | 119 | 6.1 | 12.2 | 0.00 | 0.01 | 0.01 | 37 | 1018.1 |
| 20260906211837 | 83 | 61 | 5.2 | 12.2 | 0.00 | 0.01 | 0.01 | 37 | 1018.2 |
| 20260906211638 | 83 | 76 | 5.2 | 12.2 | 0.00 | 0.01 | 0.01 | 37 | 1018.1 |
| 20260906211438 | 83 | 90 | 5.2 | 12.2 | 0.00 | 0.01 | 0.01 | 36 | 1018.2 |
| 20260906211241 | 83 | 128 | 6.1 | 12.2 | 0.00 | 0.01 | 0.01 | 36 | 1018.3 |
| 20260906211135 | 83 | 94 | 6.1 | 18.2 | 0.00 | 0.01 | 0.01 | 36 | 1018.2 |
| 20260906211034 | 83 | 103 | 6.1 | 18.2 | 0.00 | 0.01 | 0.01 | 36 | 1018.2 |
| 20260906210833 | 83 | 89 | 6.1 | 18.2 | 0.00 | 0.01 | 0.01 | 36 | 1018.3 |
| 20260906210638 | 83 | 101 | 7.0 | 18.2 | 0.00 | 0.01 | 0.01 | 35 | 1018.4 |
| 20260906210634 | 83 | 109 | 7.0 | 18.2 | 0.00 | 0.01 | 0.01 | 35 | 1018.4 |
| 20260906210431 | 83 | 167 | 8.7 | 18.2 | 0.00 | 0.01 | 0.01 | 35 | 1018.3 |
| 20260906210230 | 83 | 157 | 10.4 | 21.7 | 0.00 | 0.01 | 0.01 | 35 | 1018.1 |
| 20260906210134 | 83 | 116 | 10.4 | 21.7 | 0.00 | 0.01 | 0.01 | 35 | 1018.2 |
| 20260906210032 | 83 | 168 | 11.3 | 21.7 | 0.00 | 0.01 | 0.01 | 35 | 1018.2 |
| 20260906205830 | 84 | 84 | 12.2 | 21.7 | 0.00 | 0.01 | 0.01 | 35 | 1018.2 |
| 20260906205639 | 85 | 85 | 10.4 | 16.5 | 0.00 | 0.01 | 0.01 | 32 | 1018.7 |
| 20260906205634 | 84 | 80 | 12.2 | 21.7 | 0.00 | 0.01 | 0.01 | 35 | 1018.3 |
| 20260906205628 | 84 | 84 | 12.2 | 21.7 | 0.00 | 0.01 | 0.01 | 35 | 1018.3 |
| 20260906205428 | 84 | 94 | 11.3 | 21.7 | 0.00 | 0.01 | 0.01 | 35 | 1018.2 |
| 20260906205252 | 84 | 71 | 10.4 | 19.1 | 0.00 | 0.01 | 0.01 | 34 | 1018.2 |
| 20260906205133 | 84 | 74 | 10.4 | 19.1 | 0.00 | 0.01 | 0.01 | 34 | 1018.4 |
| 20260906205028 | 84 | 107 | 9.6 | 19.1 | 0.00 | 0.01 | 0.01 | 34 | 1018.4 |
| 20260906204824 | 84 | 82 | 9.6 | 17.4 | 0.00 | 0.01 | 0.01 | 35 | 1018.3 |
| 20260906204631 | 84 | 81 | 9.6 | 15.6 | 0.00 | 0.01 | 0.01 | 34 | 1018.4 |
| 20260906204624 | 84 | 85 | 9.6 | 15.6 | 0.00 | 0.01 | 0.01 | 34 | 1018.4 |
| 20260906204426 | 85 | 69 | 10.4 | 15.6 | 0.00 | 0.01 | 0.01 | 33 | 1018.4 |
| 20260906204248 | 85 | 78 | 10.4 | 15.6 | 0.00 | 0.01 | 0.01 | 32 | 1018.6 |
| 20260906204128 | 85 | 69 | 10.4 | 16.5 | 0.00 | 0.01 | 0.01 | 32 | 1018.6 |
| 20260906204024 | 85 | 73 | 10.4 | 16.5 | 0.00 | 0.01 | 0.01 | 33 | 1018.6 |
| 20260906203822 | 85 | 72 | 9.6 | 16.5 | 0.00 | 0.01 | 0.01 | 33 | 1018.7 |
| 20260906203619 | 85 | 59 | 10.4 | 16.5 | 0.00 | 0.01 | 0.01 | 32 | 1018.7 |
| 20260906203417 | 85 | 78 | 10.4 | 16.5 | 0.00 | 0.01 | 0.01 | 33 | 1018.7 |
| 20260906203217 | 85 | 81 | 9.6 | 16.5 | 0.00 | 0.01 | 0.01 | 34 | 1018.7 |
| 20260906203128 | 85 | 107 | 8.7 | 14.8 | 0.00 | 0.01 | 0.01 | 34 | 1018.6 |
| 20260906203018 | 85 | 57 | 8.7 | 14.8 | 0.00 | 0.01 | 0.01 | 35 | 1018.7 |
| 20260906202816 | 85 | 63 | 8.7 | 14.8 | 0.00 | 0.01 | 0.01 | 35 | 1018.8 |
| 20260906202631 | 84 | 69 | 7.8 | 14.8 | 0.00 | 0.01 | 0.01 | 34 | 1018.8 |
| 20260906202627 | 85 | 77 | 7.8 | 14.8 | 0.00 | 0.01 | 0.01 | 34 | 1018.7 |
| 20260906202615 | 85 | 59 | 7.8 | 14.8 | 0.00 | 0.01 | 0.01 | 34 | 1018.7 |
| 20260906202415 | 84 | 64 | 7.0 | 13.9 | 0.00 | 0.01 | 0.01 | 34 | 1018.8 |
| 20260906202241 | 84 | 66 | 7.8 | 13.0 | 0.00 | 0.01 | 0.01 | 34 | 1018.8 |
| 20260906202013 | 84 | 66 | 7.8 | 14.8 | 0.00 | 0.01 | 0.01 | 33 | 1018.8 |
| 20260906201810 | 84 | 55 | 8.7 | 16.5 | 0.00 | 0.01 | 0.01 | 34 | 1018.9 |
| 20260906201627 | 84 | 62 | 8.7 | 16.5 | 0.00 | 0.01 | 0.01 | 34 | 1018.9 |
| 20260906201612 | 84 | 67 | 8.7 | 16.5 | 0.00 | 0.01 | 0.01 | 34 | 1018.9 |
| 20260906201412 | 85 | 43 | 8.7 | 16.5 | 0.00 | 0.01 | 0.01 | 34 | 1019.0 |
| 20260906201212 | 85 | 65 | 8.7 | 16.5 | 0.00 | 0.01 | 0.01 | 33 | 1019.2 |
| 20260906201127 | 85 | 80 | 8.7 | 16.5 | 0.00 | 0.01 | 0.01 | 34 | 1019.2 |
| 20260906201011 | 85 | 70 | 8.7 | 16.5 | 0.00 | 0.01 | 0.01 | 33 | 1019.2 |
| 20260906200810 | 85 | 113 | 7.8 | 14.8 | 0.00 | 0.01 | 0.01 | 33 | 1019.0 |
| 20260906200626 | 85 | 80 | 7.8 | 14.8 | 0.00 | 0.01 | 0.01 | 34 | 1019.2 |
| 20260906200611 | 85 | 74 | 7.8 | 14.8 | 0.00 | 0.01 | 0.01 | 34 | 1019.2 |
| 20260906200409 | 86 | 63 | 8.7 | 14.8 | 0.00 | 0.01 | 0.01 | 33 | 1019.2 |
| 20260906200208 | 86 | 81 | 8.7 | 14.8 | 0.00 | 0.01 | 0.01 | 32 | 1019.2 |
| 20260906200124 | 87 | 88 | 8.7 | 14.8 | 0.00 | 0.01 | 0.01 | 32 | 1019.2 |
| 20260906200008 | 87 | 90 | 8.7 | 14.8 | 0.00 | 0.01 | 0.01 | 31 | 1019.2 |
| 20260906195809 | 87 | 77 | 8.7 | 14.8 | 0.00 | 0.01 | 0.01 | 32 | 1019.2 |
| 20260906195631 | 86 | 103 | 9.6 | 16.5 | 0.00 | 0.01 | 0.01 | 31 | 1019.3 |
| 20260906195626 | 86 | 109 | 9.6 | 14.8 | 0.00 | 0.01 | 0.01 | 32 | 1019.2 |
| 20260906195609 | 86 | 80 | 9.6 | 14.8 | 0.00 | 0.01 | 0.01 | 32 | 1019.2 |
| 20260906195410 | 86 | 111 | 9.6 | 14.8 | 0.00 | 0.01 | 0.01 | 33 | 1019.3 |
| 20260906195239 | 86 | 105 | 9.6 | 16.5 | 0.00 | 0.01 | 0.01 | 31 | 1019.3 |
| 20260906195010 | 86 | 87 | 10.4 | 16.5 | 0.00 | 0.01 | 0.01 | 31 | 1019.3 |
| 20260906194808 | 86 | 105 | 10.4 | 16.5 | 0.00 | 0.01 | 0.01 | 35 | 1019.3 |
| 20260906194625 | 85 | 80 | 9.6 | 16.5 | 0.00 | 0.01 | 0.01 | 34 | 1019.3 |
| 20260906194608 | 85 | 91 | 9.6 | 16.5 | 0.00 | 0.01 | 0.01 | 33 | 1019.3 |
| 20260906194408 | 85 | 82 | 9.6 | 16.5 | 0.00 | 0.01 | 0.01 | 35 | 1019.3 |
| 20260906194208 | 85 | 54 | 8.7 | 14.8 | 0.00 | 0.01 | 0.01 | 35 | 1019.3 |
| 20260906194125 | 85 | 101 | 7.8 | 14.8 | 0.00 | 0.01 | 0.01 | 35 | 1019.3 |
| 20260906194009 | 85 | 80 | 7.8 | 14.8 | 0.00 | 0.01 | 0.01 | 35 | 1019.4 |
| 20260906193808 | 85 | 84 | 7.0 | 14.8 | 0.00 | 0.01 | 0.01 | 35 | 1019.4 |
| 20260906193629 | 85 | 63 | 5.2 | 12.2 | 0.00 | 0.01 | 0.01 | 34 | 1019.5 |
| 20260906193624 | 85 | 99 | 7.0 | 14.8 | 0.00 | 0.01 | 0.01 | 34 | 1019.4 |
| 20260906193609 | 85 | 88 | 7.0 | 13.9 | 0.00 | 0.01 | 0.01 | 34 | 1019.4 |
| 20260906193409 | 85 | 85 | 6.1 | 12.2 | 0.00 | 0.01 | 0.01 | 35 | 1019.5 |
| 20260906193237 | 85 | 73 | 6.1 | 12.2 | 0.00 | 0.01 | 0.01 | 35 | 1019.5 |
| 20260906193006 | 86 | 102 | 5.2 | 12.2 | 0.00 | 0.01 | 0.01 | 34 | 1019.5 |
| 20260906192802 | 86 | 113 | 5.2 | 12.2 | 0.00 | 0.01 | 0.01 | 35 | 1019.6 |
| 20260906192625 | 86 | 107 | 5.2 | 10.4 | 0.00 | 0.01 | 0.01 | 35 | 1019.6 |
| 20260906192602 | 86 | 113 | 5.2 | 10.4 | 0.00 | 0.01 | 0.01 | 35 | 1019.6 |
| 20260906192402 | 85 | 69 | 5.2 | 10.4 | 0.00 | 0.01 | 0.01 | 35 | 1019.5 |
| 20260906192204 | 85 | 72 | 6.1 | 13.9 | 0.00 | 0.01 | 0.01 | 34 | 1019.5 |
| 20260906192122 | 85 | 40 | 6.1 | 13.9 | 0.00 | 0.01 | 0.01 | 35 | 1019.6 |
| 20260906192002 | 85 | 65 | 7.0 | 13.9 | 0.00 | 0.01 | 0.01 | 35 | 1019.6 |
| 20260906191803 | 85 | 46 | 7.0 | 13.9 | 0.00 | 0.01 | 0.01 | 35 | 1019.6 |
| 20260906191622 | 85 | 80 | 7.0 | 13.9 | 0.00 | 0.01 | 0.01 | 34 | 1019.6 |
| 20260906191602 | 85 | 69 | 7.0 | 13.9 | 0.00 | 0.01 | 0.01 | 33 | 1019.6 |
| 20260906191400 | 85 | 51 | 7.0 | 13.9 | 0.00 | 0.01 | 0.01 | 32 | 1019.6 |
| 20260906191202 | 85 | 48 | 7.0 | 12.2 | 0.00 | 0.01 | 0.01 | 32 | 1019.8 |
| 20260906191122 | 85 | 55 | 6.1 | 12.2 | 0.00 | 0.01 | 0.01 | 32 | 1019.8 |
| 20260906190958 | 85 | 51 | 6.1 | 11.3 | 0.00 | 0.01 | 0.01 | 34 | 1019.8 |
| 20260906190759 | 85 | 88 | 5.2 | 11.3 | 0.00 | 0.01 | 0.01 | 33 | 1019.8 |
| 20260906190623 | 85 | 130 | 5.2 | 11.3 | 0.00 | 0.01 | 0.01 | 31 | 1019.8 |
| 20260906190558 | 85 | 91 | 5.2 | 11.3 | 0.00 | 0.01 | 0.01 | 32 | 1019.8 |
| 20260906190358 | 85 | 29 | 5.2 | 13.0 | 0.00 | 0.01 | 0.01 | 33 | 1019.8 |
| 20260906190158 | 86 | 76 | 5.2 | 13.0 | 0.00 | 0.01 | 0.01 | 33 | 1019.8 |
| 20260906190127 | 85 | 94 | 7.8 | 14.8 | 0.00 | 0.01 | 0.01 | 33 | 1020.0 |
| 20260906190122 | 86 | 104 | 6.1 | 13.0 | 0.00 | 0.01 | 0.01 | 32 | 1019.9 |
| 20260906190000 | 85 | 348 | 7.0 | 14.8 | 0.00 | 0.01 | 0.01 | 32 | 1019.9 |
| 20260906185758 | 85 | 36 | 7.8 | 14.8 | 0.00 | 0.01 | 0.01 | 32 | 1020.0 |
| 20260906185744 | 84 | 82 | 7.0 | 14.8 | 0.00 | 0.01 | 0.01 | 32 | 1020.1 |
| 20260906185557 | 85 | 131 | 7.8 | 14.8 | 0.00 | 0.01 | 0.01 | 33 | 1020.0 |
| 20260906185355 | 85 | 72 | 7.8 | 14.8 | 0.00 | 0.01 | 0.01 | 33 | 1020.3 |
| 20260906185234 | 84 | 72 | 7.0 | 14.8 | 0.00 | 0.01 | 0.01 | 33 | 1020.3 |
| 20260906184956 | 84 | 82 | 6.1 | 14.8 | 0.00 | 0.01 | 0.01 | 32 | 1020.1 |
| 20260906184754 | 84 | 61 | 5.2 | 10.4 | 0.00 | 0.01 | 0.01 | 32 | 1020.3 |
| 20260906184623 | 84 | 108 | 5.2 | 10.4 | 0.00 | 0.01 | 0.01 | 34 | 1020.3 |
| 20260906184556 | 84 | 74 | 5.2 | 10.4 | 0.00 | 0.01 | 0.01 | 34 | 1020.3 |
| 20260906184355 | 84 | 57 | 6.1 | 11.3 | 0.00 | 0.01 | 0.01 | 33 | 1020.3 |
| 20260906184153 | 84 | 47 | 7.0 | 13.0 | 0.00 | 0.01 | 0.01 | 35 | 1020.3 |
| 20260906184123 | 84 | 38 | 7.0 | 13.0 | 0.00 | 0.01 | 0.01 | 35 | 1020.4 |
| 20260906183953 | 84 | 109 | 7.0 | 13.0 | 0.00 | 0.01 | 0.01 | 35 | 1020.5 |
| 20260906183754 | 83 | 69 | 7.8 | 13.0 | 0.00 | 0.01 | 0.01 | 35 | 1020.5 |
| 20260906183619 | 83 | 129 | 8.7 | 13.0 | 0.00 | 0.01 | 0.01 | 38 | 1020.6 |
| 20260906183552 | 83 | 77 | 8.7 | 14.8 | 0.00 | 0.01 | 0.01 | 38 | 1020.6 |
| 20260906183352 | 82 | 75 | 7.8 | 14.8 | 0.00 | 0.01 | 0.01 | 37 | 1020.6 |
| 20260906183152 | 82 | 53 | 7.8 | 14.8 | 0.00 | 0.01 | 0.01 | 35 | 1020.6 |
| 20260906183122 | 82 | 63 | 7.8 | 14.8 | 0.00 | 0.01 | 0.01 | 35 | 1020.6 |
| 20260906182951 | 82 | 75 | 7.8 | 14.8 | 0.00 | 0.01 | 0.01 | 36 | 1020.6 |
| 20260906182752 | 83 | 112 | 7.0 | 14.8 | 0.00 | 0.01 | 0.01 | 35 | 1020.7 |
| 20260906182625 | 83 | 46 | 5.2 | 10.4 | 0.00 | 0.01 | 0.01 | 37 | 1020.9 |
| 20260906182620 | 83 | 64 | 6.1 | 14.8 | 0.00 | 0.01 | 0.01 | 36 | 1020.7 |
| 20260906182552 | 83 | 75 | 6.1 | 13.0 | 0.00 | 0.01 | 0.01 | 36 | 1020.7 |
| 20260906182351 | 83 | 57 | 6.1 | 13.0 | 0.00 | 0.01 | 0.01 | 36 | 1020.9 |
| 20260906182231 | 83 | 77 | 6.1 | 13.0 | 0.00 | 0.01 | 0.01 | 35 | 1020.9 |
| 20260906181950 | 83 | 51 | 5.2 | 9.6 | 0.00 | 0.01 | 0.01 | 36 | 1021.0 |
| 20260906181748 | 83 | 32 | 5.2 | 9.6 | 0.00 | 0.01 | 0.01 | 36 | 1021.0 |
| 20260906181625 | 82 | 122 | 4.3 | 8.7 | 0.00 | 0.01 | 0.01 | 37 | 1021.2 |
| 20260906181619 | 82 | 57 | 5.2 | 9.6 | 0.00 | 0.01 | 0.01 | 35 | 1021.0 |
| 20260906181550 | 82 | 49 | 5.2 | 9.6 | 0.00 | 0.01 | 0.01 | 35 | 1021.0 |
| 20260906181350 | 82 | 79 | 4.3 | 8.7 | 0.00 | 0.01 | 0.01 | 38 | 1021.1 |
| 20260906181231 | 82 | 83 | 4.3 | 8.7 | 0.00 | 0.01 | 0.01 | 37 | 1021.1 |
| 20260906180949 | 82 | 110 | 4.3 | 8.7 | 0.00 | 0.01 | 0.01 | 37 | 1021.2 |
| 20260906180747 | 82 | 57 | 3.5 | 8.7 | 0.00 | 0.01 | 0.01 | 38 | 1021.3 |
| 20260906180621 | 82 | 71 | 3.5 | 8.7 | 0.00 | 0.01 | 0.01 | 37 | 1021.3 |
| 20260906180546 | 82 | 80 | 3.5 | 8.7 | 0.00 | 0.01 | 0.01 | 37 | 1021.3 |
| 20260906180348 | 82 | 191 | 2.6 | 5.2 | 0.00 | 0.01 | 0.01 | 36 | 1021.3 |
| 20260906180148 | 82 | 161 | 2.6 | 6.1 | 0.00 | 0.01 | 0.01 | 36 | 1021.5 |
| 20260906180125 | 83 | 44 | 3.5 | 7.8 | 0.00 | 0.01 | 0.01 | 36 | 1021.5 |
| 20260906180121 | 82 | 165 | 2.6 | 6.1 | 0.00 | 0.01 | 0.01 | 36 | 1021.5 |
| 20260906175948 | 83 | 175 | 3.5 | 7.8 | 0.00 | 0.01 | 0.01 | 36 | 1021.5 |
| 20260906175748 | 83 | 101 | 3.5 | 7.8 | 0.00 | 0.01 | 0.01 | 36 | 1021.5 |
| 20260906175548 | 82 | 14 | 3.5 | 7.8 | 0.00 | 0.01 | 0.01 | 36 | 1021.6 |
| 20260906175345 | 82 | 53 | 3.5 | 7.8 | 0.00 | 0.01 | 0.01 | 37 | 1021.6 |
| 20260906175146 | 82 | 32 | 2.6 | 7.8 | 0.00 | 0.01 | 0.01 | 35 | 1021.7 |
| 20260906175121 | 83 | 86 | 2.6 | 7.8 | 0.00 | 0.01 | 0.01 | 35 | 1021.7 |
| 20260906174945 | 83 | 84 | 2.6 | 7.8 | 0.00 | 0.01 | 0.01 | 35 | 1021.7 |
| 20260906174744 | 83 | 102 | 2.6 | 7.8 | 0.00 | 0.01 | 0.01 | 35 | 1021.7 |
| 20260906174618 | 84 | 150 | 2.6 | 7.8 | 0.00 | 0.01 | 0.01 | 35 | 1021.8 |
| 20260906174544 | 84 | 68 | 2.6 | 7.8 | 0.00 | 0.01 | 0.01 | 34 | 1021.7 |
| 20260906174346 | 84 | 101 | 2.6 | 7.8 | 0.00 | 0.01 | 0.01 | 34 | 1021.9 |
| 20260906174146 | 84 | 118 | 3.5 | 7.8 | 0.00 | 0.01 | 0.01 | 34 | 1021.8 |
| 20260906174117 | 84 | 134 | 3.5 | 8.7 | 0.00 | 0.01 | 0.01 | 35 | 1021.8 |
| 20260906173945 | 84 | 104 | 2.6 | 8.7 | 0.00 | 0.01 | 0.01 | 35 | 1021.9 |
| 20260906173742 | 83 | 109 | 2.6 | 8.7 | 0.00 | 0.01 | 0.01 | 35 | 1021.9 |
| 20260906173619 | 83 | 355 | 2.6 | 8.7 | 0.00 | 0.01 | 0.01 | 35 | 1021.9 |
| 20260906173542 | 83 | 355 | 2.6 | 8.7 | 0.00 | 0.01 | 0.01 | 35 | 1022.1 |
| 20260906173344 | 82 | 174 | 2.6 | 8.7 | 0.00 | 0.01 | 0.01 | 34 | 1022.1 |
| 20260906173143 | 83 | 154 | 2.6 | 8.7 | 0.00 | 0.01 | 0.01 | 34 | 1022.1 |
| 20260906173118 | 83 | 194 | 2.6 | 5.2 | 0.00 | 0.01 | 0.01 | 34 | 1022.1 |
| 20260906172941 | 83 | 197 | 2.6 | 7.0 | 0.00 | 0.01 | 0.01 | 33 | 1022.1 |
| 20260906172741 | 83 | 211 | 2.6 | 7.0 | 0.00 | 0.01 | 0.01 | 33 | 1022.1 |
| 20260906172617 | 83 | 282 | 2.6 | 7.0 | 0.00 | 0.01 | 0.01 | 35 | 1022.1 |
| 20260906172540 | 82 | 268 | 2.6 | 7.0 | 0.00 | 0.01 | 0.01 | 35 | 1022.1 |
| 20260906172341 | 82 | 304 | 2.6 | 7.0 | 0.01 | 0.01 | 0.01 | 34 | 1022.2 |
| 20260906172141 | 82 | 288 | 2.6 | 7.0 | 0.01 | 0.01 | 0.01 | 33 | 1022.2 |
| 20260906172118 | 82 | 298 | 2.6 | 7.0 | 0.01 | 0.01 | 0.01 | 33 | 1022.2 |
| 20260906171939 | 82 | 272 | 1.7 | 7.0 | 0.01 | 0.01 | 0.01 | 36 | 1022.3 |
| 20260906171741 | 82 | 86 | 2.6 | 7.0 | 0.01 | 0.01 | 0.01 | 36 | 1022.3 |
| 20260906171618 | 81 | 175 | 1.7 | 7.0 | 0.01 | 0.01 | 0.01 | 36 | 1022.3 |
| 20260906171542 | 81 | 144 | 1.7 | 7.0 | 0.01 | 0.01 | 0.01 | 36 | 1022.3 |
| 20260906171339 | 81 | 214 | 2.6 | 5.2 | 0.01 | 0.01 | 0.01 | 35 | 1022.3 |
| 20260906171140 | 81 | 220 | 2.6 | 5.2 | 0.01 | 0.01 | 0.01 | 36 | 1022.3 |
| 20260906171119 | 81 | 88 | 2.6 | 5.2 | 0.01 | 0.01 | 0.01 | 35 | 1022.3 |
| 20260906170938 | 80 | 149 | 2.6 | 5.2 | 0.01 | 0.01 | 0.01 | 37 | 1022.4 |
| 20260906170739 | 80 | 197 | 1.7 | 5.2 | 0.01 | 0.01 | 0.01 | 36 | 1022.4 |
| 20260906170619 | 80 | 196 | 2.6 | 5.2 | 0.01 | 0.01 | 0.01 | 37 | 1022.4 |
| 20260906170538 | 80 | 190 | 2.6 | 7.0 | 0.01 | 0.01 | 0.01 | 37 | 1022.4 |
| 20260906170337 | 80 | 196 | 2.6 | 7.8 | 0.01 | 0.01 | 0.01 | 38 | 1022.4 |
| 20260906170137 | 80 | 318 | 2.6 | 7.8 | 0.01 | 0.01 | 0.01 | 36 | 1022.4 |
| 20260906170123 | 80 | 75 | 3.5 | 7.8 | 0.01 | 0.01 | 0.01 | 35 | 1022.5 |
| 20260906170119 | 80 | 329 | 2.6 | 7.8 | 0.01 | 0.01 | 0.01 | 36 | 1022.4 |
| 20260906165936 | 80 | 336 | 2.6 | 7.8 | 0.01 | 0.01 | 0.01 | 36 | 1022.4 |
| 20260906165738 | 80 | 117 | 3.5 | 7.8 | 0.01 | 0.01 | 0.01 | 37 | 1022.5 |
| 20260906165537 | 80 | 79 | 3.5 | 7.0 | 0.01 | 0.01 | 0.01 | 35 | 1022.5 |
| 20260906165336 | 79 | 63 | 3.5 | 7.0 | 0.01 | 0.01 | 0.01 | 37 | 1022.5 |
| 20260906165135 | 79 | 77 | 3.5 | 7.0 | 0.01 | 0.01 | 0.01 | 36 | 1022.5 |
| 20260906165116 | 79 | 75 | 3.5 | 7.0 | 0.01 | 0.01 | 0.01 | 36 | 1022.5 |
| 20260906164935 | 79 | 54 | 3.5 | 7.0 | 0.01 | 0.01 | 0.01 | 37 | 1022.5 |
| 20260906164734 | 79 | 72 | 3.5 | 7.0 | 0.01 | 0.01 | 0.01 | 37 | 1022.5 |
| 20260906164617 | 79 | 75 | 2.6 | 7.0 | 0.01 | 0.01 | 0.01 | 39 | 1022.5 |
| 20260906164534 | 79 | 101 | 2.6 | 7.0 | 0.01 | 0.01 | 0.01 | 38 | 1022.5 |
| 20260906164335 | 78 | 11 | 2.6 | 6.1 | 0.01 | 0.01 | 0.01 | 39 | 1022.5 |
| 20260906164134 | 78 | 355 | 2.6 | 6.1 | 0.01 | 0.01 | 0.01 | 39 | 1022.5 |
| 20260906164116 | 78 | 9 | 2.6 | 6.1 | 0.01 | 0.01 | 0.01 | 39 | 1022.5 |
| 20260906163935 | 78 | 9 | 3.5 | 7.8 | 0.01 | 0.01 | 0.01 | 39 | 1022.7 |
| 20260906163735 | 78 | 51 | 2.6 | 7.8 | 0.01 | 0.01 | 0.01 | 41 | 1022.7 |
| 20260906163617 | 78 | 35 | 3.5 | 7.8 | 0.01 | 0.01 | 0.01 | 42 | 1022.8 |
| 20260906163533 | 77 | 53 | 3.5 | 7.8 | 0.01 | 0.01 | 0.01 | 42 | 1022.8 |
| 20260906163331 | 77 | 19 | 3.5 | 7.8 | 0.01 | 0.01 | 0.01 | 41 | 1022.7 |
| 20260906163129 | 77 | 69 | 2.6 | 7.8 | 0.01 | 0.01 | 0.01 | 43 | 1022.8 |
| 20260906163119 | 77 | 48 | 2.6 | 7.8 | 0.01 | 0.01 | 0.01 | 43 | 1022.8 |
| 20260906163114 | 78 | 329 | 2.6 | 6.1 | 0.01 | 0.01 | 0.01 | 43 | 1022.8 |
| 20260906162928 | 77 | 344 | 2.6 | 7.0 | 0.01 | 0.01 | 0.01 | 42 | 1022.8 |
| 20260906162739 | 77 | 81 | 2.6 | 4.3 | 0.00 | 0.00 | 0.00 | 43 | 1022.8 |
| 20260906162734 | 77 | 296 | 2.6 | 6.1 | 0.01 | 0.01 | 0.01 | 41 | 1022.8 |
| 20260906162526 | 78 | 338 | 2.6 | 6.1 | 0.01 | 0.01 | 0.01 | 43 | 1022.8 |
| 20260906162327 | 78 | 59 | 2.6 | 6.1 | 0.00 | 0.00 | 0.01 | 42 | 1022.9 |
| 20260906162222 | 77 | 99 | 2.6 | 4.3 | 0.00 | 0.00 | 0.00 | 43 | 1022.8 |
| 20260906161924 | 77 | 72 | 2.6 | 5.2 | 0.00 | 0.00 | 0.00 | 41 | 1022.8 |
| 20260906161725 | 78 | 26 | 2.6 | 5.2 | 0.00 | 0.00 | 0.00 | 41 | 1022.8 |
| 20260906161615 | 78 | 51 | 2.6 | 5.2 | 0.00 | 0.00 | 0.00 | 41 | 1022.8 |
| 20260906161522 | 77 | 66 | 2.6 | 5.2 | 0.00 | 0.00 | 0.00 | 43 | 1022.8 |
| 20260906161323 | 77 | 19 | 2.6 | 5.2 | 0.00 | 0.00 | 0.00 | 43 | 1022.9 |
| 20260906161123 | 76 | 334 | 1.7 | 5.2 | 0.00 | 0.00 | 0.00 | 42 | 1022.9 |
| 20260906161114 | 76 | 342 | 1.7 | 5.2 | 0.00 | 0.00 | 0.00 | 42 | 1022.9 |
| 20260906160922 | 76 | 22 | 1.7 | 3.5 | 0.00 | 0.00 | 0.00 | 42 | 1022.9 |
| 20260906160720 | 77 | 50 | 1.7 | 2.6 | 0.00 | 0.00 | 0.00 | 43 | 1022.9 |
| 20260906160614 | 77 | 349 | 1.7 | 3.5 | 0.00 | 0.00 | 0.00 | 42 | 1022.9 |
| 20260906160520 | 77 | 355 | 1.7 | 3.5 | 0.00 | 0.00 | 0.00 | 42 | 1022.9 |
| 20260906160316 | 77 | 313 | 1.7 | 3.5 | 0.00 | 0.00 | 0.00 | 41 | 1022.9 |
| 20260906160123 | 77 | 350 | 1.7 | 3.5 | 0.00 | 0.00 | 0.00 | 43 | 1023.0 |
| 20260906160114 | 78 | 344 | 1.7 | 3.5 | 0.00 | 0.00 | 0.00 | 42 | 1022.9 |
| 20260906155912 | 77 | 0 | 2.6 | 3.5 | 0.00 | 0.00 | 0.00 | 43 | 1022.9 |
| 20260906155745 | 74 | 0 | 1.7 | 3.5 | 0.00 | 0.00 | 0.00 | 45 | 1022.8 |
| 20260906155734 | 77 | 19 | 1.7 | 3.5 | 0.00 | 0.00 | 0.00 | 44 | 1022.9 |
| 20260906155512 | 76 | 324 | 1.7 | 3.5 | 0.00 | 0.00 | 0.00 | 44 | 1022.9 |
| 20260906155312 | 76 | 336 | 1.7 | 3.5 | 0.00 | 0.00 | 0.00 | 45 | 1022.9 |
| 20260906155115 | 76 | 302 | 1.7 | 3.5 | 0.00 | 0.00 | 0.00 | 45 | 1022.8 |
| 20260906155109 | 76 | 300 | 1.7 | 3.5 | 0.00 | 0.00 | 0.00 | 45 | 1022.8 |
| 20260906154916 | 75 | 338 | 1.7 | 3.5 | 0.00 | 0.00 | 0.00 | 44 | 1022.9 |
| 20260906154733 | 73 | 355 | 0.9 | 2.6 | 0.00 | 0.00 | 0.00 | 46 | 1022.7 |
| 20260906154727 | 75 | 341 | 1.7 | 3.5 | 0.00 | 0.00 | 0.00 | 44 | 1022.8 |
| 20260906154513 | 74 | 340 | 1.7 | 3.5 | 0.00 | 0.00 | 0.00 | 45 | 1022.8 |
| 20260906154313 | 74 | 355 | 1.7 | 3.5 | 0.00 | 0.00 | 0.00 | 45 | 1022.8 |
| 20260906154111 | 74 | 48 | 1.7 | 3.5 | 0.00 | 0.00 | 0.00 | 45 | 1022.7 |
| 20260906153911 | 73 | 5 | 0.9 | 2.6 | 0.00 | 0.00 | 0.00 | 47 | 1022.7 |
| 20260906153727 | 73 | 307 | 0.9 | 2.6 | 0.00 | 0.00 | 0.00 | 46 | 1022.7 |
| 20260906153511 | 73 | 309 | 0.9 | 2.6 | 0.00 | 0.00 | 0.00 | 47 | 1022.7 |
| 20260906153310 | 73 | 186 | 0.9 | 2.6 | 0.00 | 0.00 | 0.00 | 48 | 1022.8 |
| 20260906153110 | 72 | 327 | 0.9 | 2.6 | 0.00 | 0.00 | 0.00 | 48 | 1022.8 |
| 20260906152910 | 72 | 327 | 0.9 | 2.6 | 0.00 | 0.00 | 0.00 | 48 | 1022.8 |
| 20260906152707 | 71 | 329 | 1.7 | 2.6 | 0.00 | 0.00 | 0.00 | 48 | 1022.8 |
| 20260906152607 | 71 | 329 | 1.7 | 3.5 | 0.00 | 0.00 | 0.00 | 48 | 1022.8 |
| 20260906152504 | 71 | 343 | 1.7 | 3.5 | 0.00 | 0.00 | 0.00 | 48 | 1022.8 |
| 20260906152307 | 71 | 322 | 1.7 | 3.5 | 0.00 | 0.00 | 0.00 | 49 | 1022.8 |
| 20260906152105 | 71 | 328 | 1.7 | 3.5 | 0.00 | 0.00 | 0.00 | 48 | 1022.8 |
| 20260906151904 | 71 | 304 | 1.7 | 3.5 | 0.00 | 0.00 | 0.00 | 47 | 1022.8 |
| 20260906151703 | 72 | 322 | 1.7 | 3.5 | 0.00 | 0.00 | 0.00 | 49 | 1022.7 |
| 20260906151613 | 72 | 355 | 0.9 | 2.6 | 0.00 | 0.00 | 0.00 | 49 | 1022.8 |
| 20260906151608 | 72 | 346 | 1.7 | 2.6 | 0.00 | 0.00 | 0.00 | 48 | 1022.8 |
| 20260906151501 | 72 | 9 | 0.9 | 2.6 | 0.00 | 0.00 | 0.00 | 48 | 1022.8 |
| 20260906151301 | 72 | 355 | 0.9 | 2.6 | 0.00 | 0.00 | 0.00 | 49 | 1022.8 |
| 20260906151101 | 72 | 350 | 0.9 | 2.6 | 0.00 | 0.00 | 0.00 | 49 | 1022.8 |
| 20260906150900 | 72 | 5 | 0.9 | 2.6 | 0.00 | 0.00 | 0.00 | 49 | 1022.9 |
| 20260906150659 | 72 | 0 | 0.9 | 2.6 | 0.00 | 0.00 | 0.00 | 49 | 1022.9 |
| 20260906150609 | 72 | 0 | 0.9 | 2.6 | 0.00 | 0.00 | 0.00 | 49 | 1022.9 |
| 20260906150458 | 72 | 277 | 0.9 | 2.6 | 0.00 | 0.00 | 0.00 | 50 | 1022.9 |
| 20260906150256 | 71 | 281 | 0.9 | 2.6 | 0.00 | 0.00 | 0.00 | 50 | 1022.9 |
| 20260906150108 | 71 | 284 | 0.9 | 2.6 | 0.00 | 0.00 | 0.00 | 51 | 1022.9 |
| 20260906150056 | 70 | 270 | 0.9 | 2.6 | 0.00 | 0.00 | 0.00 | 51 | 1022.9 |
| 20260906145855 | 69 | 5 | 0.9 | 2.6 | 0.00 | 0.00 | 0.00 | 54 | 1022.9 |
| 20260906145655 | 69 | 5 | 0.9 | 2.6 | 0.00 | 0.00 | 0.00 | 54 | 1022.9 |
| 20260906145609 | 69 | 5 | 0.9 | 2.6 | 0.00 | 0.00 | 0.00 | 55 | 1023.0 |
| 20260906145453 | 69 | 5 | 0.9 | 2.6 | 0.00 | 0.00 | 0.00 | 55 | 1023.0 |
| 20260906145251 | 68 | 5 | 0.9 | 2.6 | 0.00 | 0.00 | 0.00 | 56 | 1022.9 |
| 20260906145107 | 68 | 18 | 0.9 | 2.6 | 0.00 | 0.00 | 0.00 | 57 | 1022.9 |
| 20260906145048 | 68 | 18 | 0.9 | 2.6 | 0.00 | 0.00 | 0.00 | 57 | 1022.9 |
| 20260906144849 | 68 | 28 | 1.7 | 2.6 | 0.00 | 0.00 | 0.00 | 56 | 1022.9 |
| 20260906144648 | 68 | 40 | 0.9 | 2.6 | 0.00 | 0.00 | 0.00 | 55 | 1022.9 |
| 20260906144605 | 68 | 55 | 0.9 | 2.6 | 0.00 | 0.00 | 0.00 | 58 | 1022.9 |
| 20260906144448 | 67 | 57 | 1.7 | 3.5 | 0.00 | 0.00 | 0.00 | 58 | 1022.8 |
| 20260906144248 | 67 | 57 | 1.7 | 3.5 | 0.00 | 0.00 | 0.00 | 58 | 1022.8 |
| 20260906144104 | 67 | 0 | 1.7 | 3.5 | 0.00 | 0.00 | 0.00 | 57 | 1022.9 |
| 20260906144047 | 67 | 0 | 1.7 | 3.5 | 0.00 | 0.00 | 0.00 | 57 | 1022.9 |
| 20260906143848 | 67 | 27 | 1.7 | 3.5 | 0.00 | 0.00 | 0.00 | 57 | 1022.9 |
| 20260906143647 | 67 | 25 | 1.7 | 3.5 | 0.00 | 0.00 | 0.00 | 57 | 1022.9 |
| 20260906143603 | 67 | 39 | 1.7 | 3.5 | 0.00 | 0.00 | 0.00 | 57 | 1022.9 |
| 20260906143448 | 67 | 5 | 1.7 | 4.3 | 0.00 | 0.00 | 0.00 | 58 | 1022.8 |
| 20260906143247 | 67 | 0 | 1.7 | 4.3 | 0.00 | 0.00 | 0.00 | 59 | 1022.8 |
| 20260906143104 | 67 | 19 | 1.7 | 4.3 | 0.00 | 0.00 | 0.00 | 61 | 1022.8 |
| 20260906143048 | 67 | 19 | 1.7 | 4.3 | 0.00 | 0.00 | 0.00 | 61 | 1022.8 |
| 20260906142848 | 67 | 27 | 1.7 | 4.3 | 0.00 | 0.00 | 0.00 | 62 | 1022.9 |
| 20260906142647 | 67 | 23 | 1.7 | 4.3 | 0.00 | 0.00 | 0.00 | 65 | 1022.9 |
| 20260906142604 | 66 | 5 | 1.7 | 4.3 | 0.00 | 0.00 | 0.00 | 65 | 1022.9 |
| 20260906142448 | 66 | 34 | 1.7 | 3.5 | 0.00 | 0.00 | 0.00 | 66 | 1022.9 |
| 20260906142248 | 66 | 344 | 1.7 | 3.5 | 0.00 | 0.00 | 0.00 | 66 | 1022.9 |
| 20260906142108 | 65 | 31 | 1.7 | 3.5 | 0.00 | 0.00 | 0.00 | 69 | 1023.0 |
| 20260906142103 | 66 | 50 | 1.7 | 3.5 | 0.00 | 0.00 | 0.00 | 68 | 1022.9 |
| 20260906142048 | 66 | 39 | 1.7 | 3.5 | 0.00 | 0.00 | 0.00 | 68 | 1022.9 |
| 20260906141849 | 65 | 9 | 1.7 | 3.5 | 0.00 | 0.00 | 0.00 | 69 | 1022.9 |
| 20260906141717 | 65 | 31 | 1.7 | 3.5 | 0.00 | 0.00 | 0.00 | 69 | 1023.0 |
| 20260906141447 | 65 | 46 | 1.7 | 3.5 | 0.00 | 0.00 | 0.00 | 72 | 1023.0 |
| 20260906141249 | 65 | 67 | 1.7 | 3.5 | 0.00 | 0.00 | 0.00 | 73 | 1023.0 |
| 20260906141104 | 65 | 78 | 1.7 | 3.5 | 0.00 | 0.00 | 0.00 | 74 | 1023.0 |
| 20260906141048 | 65 | 67 | 1.7 | 3.5 | 0.00 | 0.00 | 0.00 | 74 | 1023.0 |
| 20260906140848 | 65 | 45 | 1.7 | 2.6 | 0.00 | 0.00 | 0.00 | 74 | 1023.0 |
| 20260906140648 | 65 | 33 | 1.7 | 2.6 | 0.00 | 0.00 | 0.00 | 74 | 1023.0 |
| 20260906140605 | 65 | 36 | 1.7 | 2.6 | 0.00 | 0.00 | 0.00 | 74 | 1023.0 |
| 20260906140448 | 64 | 51 | 1.7 | 2.6 | 0.00 | 0.00 | 0.00 | 74 | 1022.9 |
| 20260906140248 | 64 | 41 | 0.9 | 2.6 | 0.00 | 0.00 | 0.00 | 74 | 1022.9 |
| 20260906140105 | 64 | 67 | 0.9 | 2.6 | 0.00 | 0.00 | 0.00 | 74 | 1022.9 |
| 20260906140048 | 64 | 61 | 0.9 | 2.6 | 0.00 | 0.00 | 0.00 | 74 | 1022.9 |
| 20260906135846 | 64 | 42 | 0.9 | 1.7 | 0.00 | 0.00 | 0.00 | 75 | 1022.9 |
| 20260906135647 | 64 | 277 | 0.9 | 1.7 | 0.00 | 0.00 | 0.00 | 75 | 1022.9 |
| 20260906135602 | 64 | 277 | 0.9 | 1.7 | 0.00 | 0.00 | 0.00 | 75 | 1022.9 |
| 20260906135447 | 64 | 277 | 0.9 | 1.7 | 0.00 | 0.00 | 0.00 | 75 | 1022.9 |
| 20260906135246 | 64 | 277 | 0.9 | 2.6 | 0.00 | 0.00 | 0.00 | 75 | 1022.9 |
| 20260906135102 | 64 | 277 | 0.9 | 2.6 | 0.00 | 0.00 | 0.00 | 75 | 1022.9 |
| 20260906135047 | 64 | 277 | 0.9 | 2.6 | 0.00 | 0.00 | 0.00 | 75 | 1022.9 |
| 20260906134846 | 64 | 277 | 1.7 | 2.6 | 0.00 | 0.00 | 0.00 | 76 | 1022.9 |
| 20260906134722 | 63 | 312 | 1.7 | 1.7 | 0.00 | 0.00 | 0.00 | 77 | 1022.7 |
| 20260906134646 | 64 | 277 | 1.7 | 2.6 | 0.00 | 0.00 | 0.00 | 76 | 1022.8 |
| 20260906134607 | 64 | 312 | 1.7 | 2.6 | 0.00 | 0.00 | 0.00 | 76 | 1022.7 |
| 20260906134603 | 64 | 277 | 1.7 | 2.6 | 0.00 | 0.00 | 0.00 | 76 | 1022.8 |
| 20260906134447 | 64 | 277 | 1.7 | 2.6 | 0.00 | 0.00 | 0.00 | 76 | 1022.8 |
| 20260906134331 | 64 | 281 | 1.7 | 2.6 | 0.00 | 0.00 | 0.00 | 76 | 1022.7 |
| 20260906134047 | 64 | 312 | 1.7 | 2.6 | 0.00 | 0.00 | 0.00 | 76 | 1022.7 |
| 20260906133846 | 64 | 312 | 1.7 | 1.7 | 0.00 | 0.00 | 0.00 | 77 | 1022.7 |
| 20260906133714 | 63 | 312 | 1.7 | 1.7 | 0.00 | 0.00 | 0.00 | 77 | 1022.7 |
| 20260906133445 | 63 | 312 | 1.7 | 1.7 | 0.00 | 0.00 | 0.00 | 77 | 1022.5 |
| 20260906133246 | 63 | 312 | 1.7 | 1.7 | 0.00 | 0.00 | 0.00 | 78 | 1022.5 |
| 20260906133103 | 62 | 321 | 0.9 | 1.7 | 0.00 | 0.00 | 0.00 | 78 | 1022.5 |
| 20260906133046 | 62 | 324 | 0.9 | 1.7 | 0.00 | 0.00 | 0.00 | 78 | 1022.5 |
| 20260906132847 | 62 | 343 | 0.9 | 1.7 | 0.00 | 0.00 | 0.00 | 79 | 1022.5 |
| 20260906132645 | 62 | 10 | 0.9 | 1.7 | 0.00 | 0.00 | 0.00 | 79 | 1022.5 |
| 20260906132602 | 62 | 10 | 0.9 | 1.7 | 0.00 | 0.00 | 0.00 | 79 | 1022.5 |
| 20260906132446 | 62 | 21 | 0.9 | 1.7 | 0.00 | 0.00 | 0.00 | 80 | 1022.4 |
| 20260906132247 | 62 | 21 | 0.9 | 2.6 | 0.00 | 0.00 | 0.00 | 79 | 1022.4 |
| 20260906132102 | 62 | 21 | 1.7 | 2.6 | 0.00 | 0.00 | 0.00 | 80 | 1022.4 |
| 20260906132046 | 62 | 21 | 1.7 | 2.6 | 0.00 | 0.00 | 0.00 | 80 | 1022.4 |
| 20260906131847 | 61 | 21 | 1.7 | 2.6 | 0.00 | 0.00 | 0.00 | 80 | 1022.4 |
| 20260906131645 | 61 | 21 | 1.7 | 2.6 | 0.00 | 0.00 | 0.00 | 80 | 1022.4 |
| 20260906131607 | 61 | 39 | 1.7 | 2.6 | 0.00 | 0.00 | 0.00 | 78 | 1022.4 |
| 20260906131602 | 61 | 19 | 1.7 | 2.6 | 0.00 | 0.00 | 0.00 | 80 | 1022.4 |
| 20260906131446 | 61 | 25 | 1.7 | 2.6 | 0.00 | 0.00 | 0.00 | 80 | 1022.4 |
| 20260906131247 | 61 | 29 | 1.7 | 2.6 | 0.00 | 0.00 | 0.00 | 79 | 1022.4 |
| 20260906131220 | 61 | 53 | 1.7 | 2.6 | 0.00 | 0.00 | 0.00 | 69 | 1022.4 |
| 20260906131047 | 61 | 39 | 1.7 | 2.6 | 0.00 | 0.00 | 0.00 | 77 | 1022.4 |
| 20260906130847 | 61 | 33 | 1.7 | 2.6 | 0.00 | 0.00 | 0.00 | 74 | 1022.4 |
| 20260906130713 | 61 | 32 | 1.7 | 2.6 | 0.00 | 0.00 | 0.00 | 69 | 1022.4 |
| 20260906130447 | 61 | 59 | 1.7 | 2.6 | 0.00 | 0.00 | 0.00 | 68 | 1022.4 |
| 20260906130247 | 61 | 59 | 1.7 | 2.6 | 0.00 | 0.00 | 0.00 | 70 | 1022.4 |
| 20260906130046 | 61 | 66 | 1.7 | 2.6 | 0.00 | 0.00 | 0.00 | 71 | 1022.4 |
| 20260906125846 | 61 | 62 | 1.7 | 2.6 | 0.00 | 0.00 | 0.00 | 70 | 1022.4 |
| 20260906125645 | 61 | 58 | 0.9 | 2.6 | 0.00 | 0.00 | 0.00 | 70 | 1022.4 |
| 20260906125602 | 61 | 58 | 0.9 | 2.6 | 0.00 | 0.00 | 0.00 | 71 | 1022.4 |
| 20260906125444 | 61 | 59 | 0.9 | 2.6 | 0.00 | 0.00 | 0.00 | 71 | 1022.4 |
| 20260906125243 | 61 | 62 | 1.7 | 2.6 | 0.00 | 0.00 | 0.00 | 72 | 1022.3 |
| 20260906125044 | 61 | 62 | 1.7 | 2.6 | 0.00 | 0.00 | 0.00 | 72 | 1022.4 |
| 20260906124845 | 61 | 59 | 1.7 | 2.6 | 0.00 | 0.00 | 0.00 | 72 | 1022.4 |
| 20260906124645 | 61 | 67 | 1.7 | 2.6 | 0.00 | 0.00 | 0.00 | 71 | 1022.3 |
| 20260906124603 | 61 | 67 | 1.7 | 2.6 | 0.00 | 0.00 | 0.00 | 71 | 1022.3 |
| 20260906124443 | 61 | 61 | 1.7 | 2.6 | 0.00 | 0.00 | 0.00 | 71 | 1022.4 |
| 20260906124243 | 61 | 35 | 0.9 | 1.7 | 0.00 | 0.00 | 0.00 | 70 | 1022.3 |
| 20260906124057 | 61 | 32 | 0.9 | 1.7 | 0.00 | 0.00 | 0.00 | 69 | 1022.4 |
| 20260906124041 | 61 | 32 | 0.9 | 1.7 | 0.00 | 0.00 | 0.00 | 69 | 1022.3 |
| 20260906123838 | 61 | 19 | 0.9 | 2.6 | 0.00 | 0.00 | 0.00 | 69 | 1022.3 |
| 20260906123637 | 61 | 19 | 1.7 | 5.2 | 0.00 | 0.00 | 0.00 | 67 | 1022.2 |
| 20260906123558 | 61 | 19 | 1.7 | 5.2 | 0.00 | 0.00 | 0.00 | 67 | 1022.2 |
| 20260906123437 | 61 | 19 | 1.7 | 5.2 | 0.00 | 0.00 | 0.00 | 67 | 1022.2 |
| 20260906123237 | 61 | 19 | 1.7 | 5.2 | 0.00 | 0.00 | 0.00 | 66 | 1022.2 |
| 20260906123035 | 62 | 19 | 1.7 | 5.2 | 0.00 | 0.00 | 0.00 | 65 | 1022.2 |
| 20260906122838 | 62 | 40 | 1.7 | 5.2 | 0.00 | 0.00 | 0.00 | 65 | 1022.2 |
| 20260906122634 | 62 | 28 | 1.7 | 3.5 | 0.00 | 0.00 | 0.00 | 65 | 1022.2 |
| 20260906122556 | 62 | 5 | 1.7 | 3.5 | 0.00 | 0.00 | 0.00 | 64 | 1022.2 |
| 20260906122434 | 62 | 26 | 1.7 | 3.5 | 0.00 | 0.00 | 0.00 | 64 | 1022.2 |
| 20260906122234 | 62 | 51 | 1.7 | 3.5 | 0.00 | 0.00 | 0.00 | 64 | 1022.2 |
| 20260906122055 | 62 | 47 | 1.7 | 3.5 | 0.00 | 0.00 | 0.00 | 64 | 1022.2 |
| 20260906122033 | 62 | 46 | 1.7 | 3.5 | 0.00 | 0.00 | 0.00 | 64 | 1022.1 |
| 20260906121833 | 62 | 44 | 1.7 | 3.5 | 0.00 | 0.00 | 0.00 | 62 | 1022.1 |
| 20260906121633 | 62 | 45 | 1.7 | 2.6 | 0.00 | 0.00 | 0.00 | 61 | 1022.2 |
| 20260906121600 | 62 | 60 | 1.7 | 2.6 | 0.00 | 0.00 | 0.00 | 60 | 1022.1 |
| 20260906121555 | 62 | 44 | 1.7 | 2.6 | 0.00 | 0.00 | 0.00 | 61 | 1022.2 |
| 20260906121433 | 62 | 43 | 1.7 | 2.6 | 0.00 | 0.00 | 0.00 | 61 | 1022.2 |
| 20260906121232 | 62 | 38 | 1.7 | 2.6 | 0.00 | 0.00 | 0.00 | 60 | 1022.1 |
| 20260906121032 | 62 | 60 | 1.7 | 2.6 | 0.00 | 0.00 | 0.00 | 60 | 1022.1 |
| 20260906120829 | 62 | 62 | 1.7 | 2.6 | 0.00 | 0.00 | 0.00 | 60 | 1022.2 |
| 20260906120627 | 63 | 62 | 1.7 | 2.6 | 0.00 | 0.00 | 0.00 | 60 | 1022.2 |
| 20260906120556 | 63 | 62 | 1.7 | 2.6 | 0.00 | 0.00 | 0.00 | 60 | 1022.2 |
| 20260906120429 | 63 | 66 | 1.7 | 2.6 | 0.00 | 0.00 | 0.00 | 59 | 1022.2 |
| 20260906120227 | 63 | 68 | 0.9 | 2.6 | 0.00 | 0.00 | 0.00 | 59 | 1022.2 |
| 20260906120027 | 63 | 68 | 0.9 | 2.6 | 0.00 | 0.00 | 0.00 | 59 | 1022.2 |
| 20260906115823 | 63 | 64 | 0.9 | 1.7 | 0.00 | 0.00 | 0.00 | 59 | 1022.2 |
| 20260906115709 | 63 | 64 | 0.9 | 1.7 | 0.00 | 0.00 | 0.00 | 58 | 1022.2 |
| 20260906115557 | 63 | 64 | 0.9 | 1.7 | 0.00 | 0.00 | 0.00 | 58 | 1022.2 |
| 20260906115423 | 63 | 64 | 0.9 | 1.7 | 0.00 | 0.00 | 0.00 | 59 | 1022.2 |
| 20260906115221 | 63 | 64 | 0.9 | 2.6 | 0.00 | 0.00 | 0.00 | 59 | 1022.2 |
| 20260906115023 | 63 | 64 | 0.9 | 2.6 | 0.00 | 0.00 | 0.00 | 58 | 1022.2 |
| 20260906114821 | 63 | 64 | 0.9 | 2.6 | 0.00 | 0.00 | 0.00 | 58 | 1022.2 |
| 20260906114621 | 63 | 64 | 0.9 | 2.6 | 0.00 | 0.00 | 0.00 | 58 | 1022.2 |
| 20260906114555 | 63 | 64 | 0.9 | 2.6 | 0.00 | 0.00 | 0.00 | 58 | 1022.2 |
| 20260906114420 | 63 | 64 | 0.9 | 2.6 | 0.00 | 0.00 | 0.00 | 58 | 1022.2 |
| 20260906114222 | 63 | 52 | 0.9 | 2.6 | 0.00 | 0.00 | 0.00 | 57 | 1022.2 |
| 20260906114055 | 63 | 52 | 0.0 | 2.6 | 0.00 | 0.00 | 0.00 | 57 | 1022.2 |
| 20260906114019 | 63 | 54 | 0.0 | 2.6 | 0.00 | 0.00 | 0.00 | 57 | 1022.2 |
| 20260906113818 | 63 | 304 | 0.0 | 1.7 | 0.00 | 0.00 | 0.00 | 57 | 1022.2 |
| 20260906113618 | 64 | 291 | 0.0 | 0.9 | 0.00 | 0.00 | 0.00 | 57 | 1022.2 |
| 20260906113601 | 64 | 291 | 0.9 | 2.6 | 0.00 | 0.00 | 0.00 | 56 | 1022.1 |
| 20260906113555 | 64 | 291 | 0.0 | 0.9 | 0.00 | 0.00 | 0.00 | 57 | 1022.2 |
| 20260906113416 | 64 | 291 | 0.0 | 0.9 | 0.00 | 0.00 | 0.00 | 56 | 1022.2 |
| 20260906113216 | 64 | 291 | 0.0 | 1.7 | 0.00 | 0.00 | 0.00 | 56 | 1022.2 |
| 20260906113015 | 64 | 291 | 0.9 | 2.6 | 0.00 | 0.00 | 0.00 | 56 | 1022.1 |
| 20260906112813 | 64 | 291 | 0.9 | 3.5 | 0.00 | 0.00 | 0.00 | 56 | 1022.1 |
| 20260906112611 | 64 | 291 | 1.7 | 3.5 | 0.00 | 0.00 | 0.00 | 56 | 1022.1 |
| 20260906112556 | 64 | 291 | 1.7 | 3.5 | 0.00 | 0.00 | 0.00 | 56 | 1022.1 |
| 20260906112409 | 64 | 291 | 1.7 | 3.5 | 0.00 | 0.00 | 0.00 | 56 | 1022.1 |
| 20260906112207 | 64 | 291 | 1.7 | 3.5 | 0.00 | 0.00 | 0.00 | 56 | 1021.9 |
| 20260906112053 | 64 | 299 | 1.7 | 3.5 | 0.00 | 0.00 | 0.00 | 56 | 1021.9 |
| 20260906112008 | 64 | 311 | 1.7 | 3.5 | 0.00 | 0.00 | 0.00 | 56 | 1021.9 |
| 20260906111809 | 64 | 324 | 0.9 | 2.6 | 0.00 | 0.00 | 0.00 | 56 | 1021.9 |
| 20260906111609 | 64 | 36 | 0.9 | 1.7 | 0.00 | 0.00 | 0.00 | 56 | 1021.9 |
| 20260906111555 | 64 | 36 | 0.9 | 1.7 | 0.00 | 0.00 | 0.00 | 56 | 1021.9 |
| 20260906111408 | 64 | 36 | 0.0 | 1.7 | 0.00 | 0.00 | 0.00 | 56 | 1021.9 |
| 20260906111209 | 64 | 36 | 0.0 | 1.7 | 0.00 | 0.00 | 0.00 | 56 | 1021.9 |
| 20260906111053 | 64 | 36 | 0.0 | 1.7 | 0.00 | 0.00 | 0.00 | 56 | 1021.9 |
| 20260906111009 | 64 | 36 | 0.0 | 0.9 | 0.00 | 0.00 | 0.00 | 56 | 1021.8 |
| 20260906110809 | 64 | 36 | 0.0 | 1.7 | 0.00 | 0.00 | 0.00 | 56 | 1021.8 |
| 20260906110606 | 64 | 36 | 0.9 | 1.7 | 0.00 | 0.00 | 0.00 | 56 | 1021.9 |
| 20260906110554 | 64 | 36 | 0.9 | 1.7 | 0.00 | 0.00 | 0.00 | 56 | 1021.9 |
| 20260906110406 | 64 | 36 | 0.9 | 1.7 | 0.00 | 0.00 | 0.00 | 56 | 1021.9 |
| 20260906110206 | 64 | 36 | 0.9 | 1.7 | 0.00 | 0.00 | 0.00 | 56 | 1022.1 |
| 20260906110056 | 64 | 88 | 0.9 | 1.7 | 0.00 | 0.00 | 0.00 | 57 | 1021.9 |
| 20260906110051 | 64 | 36 | 0.9 | 1.7 | 0.00 | 0.00 | 0.00 | 56 | 1021.9 |
| 20260906110005 | 64 | 36 | 0.9 | 1.7 | 0.00 | 0.00 | 0.00 | 56 | 1022.1 |
| 20260906105804 | 64 | 36 | 0.9 | 1.7 | 0.00 | 0.00 | 0.00 | 56 | 1021.9 |
| 20260906105659 | 64 | 71 | 0.9 | 1.7 | 0.00 | 0.00 | 0.00 | 57 | 1021.9 |
| 20260906105402 | 63 | 88 | 0.9 | 1.7 | 0.00 | 0.00 | 0.00 | 57 | 1021.9 |
| 20260906105200 | 63 | 88 | 0.9 | 1.7 | 0.00 | 0.00 | 0.00 | 58 | 1021.9 |
| 20260906105053 | 63 | 88 | 0.9 | 1.7 | 0.00 | 0.00 | 0.00 | 58 | 1021.9 |
| 20260906105000 | 63 | 88 | 0.9 | 1.7 | 0.00 | 0.00 | 0.00 | 58 | 1021.9 |
| 20260906104759 | 63 | 88 | 0.9 | 1.7 | 0.00 | 0.00 | 0.00 | 58 | 1021.8 |
| 20260906104551 | 63 | 88 | 0.9 | 1.7 | 0.00 | 0.00 | 0.00 | 58 | 1021.7 |
| 20260906104359 | 63 | 92 | 0.9 | 1.7 | 0.00 | 0.00 | 0.00 | 58 | 1021.7 |
| 20260906104157 | 63 | 92 | 0.9 | 1.7 | 0.00 | 0.00 | 0.00 | 58 | 1021.7 |
| 20260906104051 | 63 | 92 | 0.9 | 1.7 | 0.00 | 0.00 | 0.00 | 58 | 1021.7 |
| 20260906103955 | 63 | 92 | 0.9 | 1.7 | 0.00 | 0.00 | 0.00 | 58 | 1021.7 |
| 20260906103751 | 63 | 92 | 0.9 | 2.6 | 0.00 | 0.00 | 0.00 | 58 | 1021.8 |
| 20260906103602 | 65 | 111 | 0.9 | 2.6 | 0.00 | 0.00 | 0.00 | 55 | 1021.8 |
| 20260906103552 | 64 | 92 | 0.9 | 2.6 | 0.00 | 0.00 | 0.00 | 57 | 1021.8 |
| 20260906103351 | 64 | 100 | 0.9 | 2.6 | 0.00 | 0.00 | 0.00 | 57 | 1021.8 |
| 20260906103207 | 64 | 106 | 0.9 | 2.6 | 0.00 | 0.00 | 0.00 | 55 | 1021.8 |
| 20260906102947 | 65 | 120 | 0.9 | 2.6 | 0.00 | 0.00 | 0.00 | 55 | 1021.8 |
| 20260906102749 | 65 | 115 | 0.9 | 2.6 | 0.00 | 0.00 | 0.00 | 54 | 1021.8 |
| 20260906102550 | 65 | 116 | 0.9 | 2.6 | 0.00 | 0.00 | 0.00 | 54 | 1021.7 |
| 20260906102547 | 65 | 119 | 0.9 | 2.6 | 0.00 | 0.00 | 0.00 | 54 | 1021.8 |
| 20260906102345 | 65 | 183 | 0.9 | 1.7 | 0.00 | 0.00 | 0.00 | 53 | 1021.7 |
| 20260906102143 | 65 | 183 | 0.9 | 1.7 | 0.00 | 0.00 | 0.00 | 53 | 1021.7 |
| 20260906102049 | 65 | 183 | 0.9 | 1.7 | 0.00 | 0.00 | 0.00 | 53 | 1021.7 |
| 20260906101943 | 66 | 183 | 0.9 | 1.7 | 0.00 | 0.00 | 0.00 | 53 | 1021.7 |
| 20260906101744 | 66 | 183 | 0.9 | 2.6 | 0.00 | 0.00 | 0.00 | 52 | 1021.7 |
| 20260906101549 | 66 | 183 | 0.9 | 3.5 | 0.00 | 0.00 | 0.00 | 52 | 1021.7 |
| 20260906101544 | 66 | 183 | 1.7 | 3.5 | 0.00 | 0.00 | 0.00 | 52 | 1021.7 |
| 20260906101346 | 66 | 183 | 1.7 | 3.5 | 0.00 | 0.00 | 0.00 | 52 | 1021.7 |
| 20260906101144 | 66 | 183 | 1.7 | 3.5 | 0.00 | 0.00 | 0.00 | 52 | 1021.7 |
| 20260906101049 | 66 | 183 | 1.7 | 3.5 | 0.00 | 0.00 | 0.00 | 52 | 1021.7 |
| 20260906100942 | 66 | 183 | 1.7 | 3.5 | 0.00 | 0.00 | 0.00 | 52 | 1021.7 |
| 20260906100740 | 66 | 182 | 1.7 | 3.5 | 0.00 | 0.00 | 0.00 | 52 | 1021.7 |
| 20260906100550 | 66 | 191 | 1.7 | 3.5 | 0.00 | 0.00 | 0.00 | 52 | 1021.7 |
| 20260906100539 | 66 | 199 | 1.7 | 3.5 | 0.00 | 0.00 | 0.00 | 52 | 1021.8 |
| 20260906100340 | 66 | 199 | 1.7 | 2.6 | 0.00 | 0.00 | 0.00 | 51 | 1021.8 |
| 20260906100138 | 66 | 199 | 1.7 | 2.6 | 0.00 | 0.00 | 0.00 | 51 | 1021.7 |
| 20260906100050 | 66 | 199 | 1.7 | 2.6 | 0.00 | 0.00 | 0.00 | 51 | 1021.7 |
| 20260906095939 | 67 | 199 | 1.7 | 2.6 | 0.00 | 0.00 | 0.00 | 50 | 1021.7 |
| 20260906095736 | 67 | 199 | 1.7 | 2.6 | 0.00 | 0.00 | 0.00 | 50 | 1021.7 |
| 20260906095535 | 67 | 199 | 1.7 | 2.6 | 0.00 | 0.00 | 0.00 | 50 | 1021.7 |
| 20260906095337 | 67 | 199 | 1.7 | 2.6 | 0.00 | 0.00 | 0.00 | 49 | 1021.7 |
| 20260906095133 | 67 | 210 | 1.7 | 2.6 | 0.00 | 0.00 | 0.00 | 49 | 1021.8 |
| 20260906095049 | 67 | 210 | 1.7 | 2.6 | 0.00 | 0.00 | 0.00 | 49 | 1021.8 |
| 20260906094934 | 67 | 210 | 0.9 | 2.6 | 0.00 | 0.00 | 0.00 | 49 | 1021.8 |
| 20260906094732 | 67 | 233 | 0.9 | 2.6 | 0.00 | 0.00 | 0.00 | 49 | 1021.8 |
| 20260906094547 | 67 | 233 | 0.9 | 2.6 | 0.00 | 0.00 | 0.00 | 49 | 1021.8 |
| 20260906094531 | 67 | 233 | 0.9 | 2.6 | 0.00 | 0.00 | 0.00 | 49 | 1021.7 |
| 20260906094329 | 67 | 233 | 0.9 | 1.7 | 0.00 | 0.00 | 0.00 | 49 | 1021.7 |
| 20260906094125 | 67 | 233 | 0.9 | 1.7 | 0.00 | 0.00 | 0.00 | 48 | 1021.7 |
| 20260906094048 | 67 | 233 | 0.9 | 1.7 | 0.00 | 0.00 | 0.00 | 48 | 1021.7 |
| 20260906093927 | 67 | 233 | 0.9 | 1.7 | 0.00 | 0.00 | 0.00 | 48 | 1021.6 |
| 20260906093724 | 68 | 233 | 0.9 | 1.7 | 0.00 | 0.00 | 0.00 | 48 | 1021.6 |
| 20260906093553 | 68 | 251 | 0.0 | 0.9 | 0.00 | 0.00 | 0.00 | 48 | 1021.7 |
| 20260906093522 | 68 | 233 | 0.9 | 1.7 | 0.00 | 0.00 | 0.00 | 48 | 1021.7 |
| 20260906093319 | 68 | 233 | 0.9 | 1.7 | 0.00 | 0.00 | 0.00 | 48 | 1021.7 |
| 20260906093204 | 68 | 251 | 0.9 | 1.7 | 0.00 | 0.00 | 0.00 | 48 | 1021.7 |
| 20260906093153 | 68 | 251 | 0.9 | 1.7 | 0.00 | 0.00 | 0.00 | 48 | 1021.7 |
| 20260906092919 | 68 | 251 | 0.0 | 1.7 | 0.00 | 0.00 | 0.00 | 48 | 1021.7 |
| 20260906092721 | 68 | 251 | 0.0 | 0.9 | 0.00 | 0.00 | 0.00 | 48 | 1021.7 |
| 20260906092518 | 68 | 251 | 0.0 | 0.9 | 0.00 | 0.00 | 0.00 | 48 | 1021.7 |
| 20260906092318 | 68 | 251 | 0.9 | 1.7 | 0.00 | 0.00 | 0.00 | 48 | 1021.6 |
| 20260906092117 | 68 | 251 | 0.9 | 2.6 | 0.00 | 0.00 | 0.00 | 48 | 1021.7 |
| 20260906092047 | 68 | 251 | 0.9 | 2.6 | 0.00 | 0.00 | 0.00 | 48 | 1021.7 |
| 20260906091917 | 68 | 251 | 0.9 | 2.6 | 0.00 | 0.00 | 0.00 | 48 | 1021.7 |
| 20260906091715 | 68 | 251 | 0.9 | 2.6 | 0.00 | 0.00 | 0.00 | 48 | 1021.7 |
| 20260906091552 | 67 | 355 | 0.0 | 1.7 | 0.00 | 0.00 | 0.00 | 49 | 1021.6 |
| 20260906091548 | 68 | 251 | 0.9 | 2.6 | 0.00 | 0.00 | 0.00 | 49 | 1021.7 |
| 20260906091514 | 67 | 251 | 0.9 | 2.6 | 0.00 | 0.00 | 0.00 | 49 | 1021.7 |
| 20260906091314 | 67 | 252 | 0.0 | 2.6 | 0.00 | 0.00 | 0.00 | 49 | 1021.6 |
| 20260906091156 | 67 | 355 | 0.0 | 1.7 | 0.00 | 0.00 | 0.00 | 49 | 1021.6 |
| 20260906090914 | 67 | 355 | 0.9 | 2.6 | 0.00 | 0.00 | 0.00 | 50 | 1021.6 |
| 20260906090714 | 67 | 355 | 0.9 | 3.5 | 0.00 | 0.00 | 0.00 | 50 | 1021.6 |
| 20260906090547 | 66 | 355 | 0.9 | 3.5 | 0.00 | 0.00 | 0.00 | 51 | 1021.6 |
| 20260906090513 | 66 | 355 | 0.9 | 3.5 | 0.00 | 0.00 | 0.00 | 51 | 1021.6 |
| 20260906090312 | 66 | 355 | 0.9 | 3.5 | 0.00 | 0.00 | 0.00 | 51 | 1021.6 |
| 20260906090111 | 66 | 344 | 0.9 | 3.5 | 0.00 | 0.00 | 0.00 | 52 | 1021.6 |
| 20260906090052 | 67 | 165 | 1.7 | 1.7 | 0.00 | 0.00 | 0.00 | 51 | 1021.6 |
| 20260906090048 | 66 | 344 | 0.9 | 3.5 | 0.00 | 0.00 | 0.00 | 52 | 1021.6 |
| 20260906085908 | 66 | 330 | 1.7 | 3.5 | 0.00 | 0.00 | 0.00 | 52 | 1021.6 |
| 20260906085707 | 67 | 308 | 1.7 | 2.6 | 0.00 | 0.00 | 0.00 | 51 | 1021.5 |
| 20260906085508 | 67 | 165 | 1.7 | 1.7 | 0.00 | 0.00 | 0.00 | 51 | 1021.5 |
| 20260906085309 | 67 | 165 | 1.7 | 1.7 | 0.00 | 0.00 | 0.00 | 50 | 1021.5 |
| 20260906085106 | 67 | 165 | 0.9 | 1.7 | 0.00 | 0.00 | 0.00 | 51 | 1021.5 |
| 20260906085045 | 67 | 161 | 0.9 | 1.7 | 0.00 | 0.00 | 0.00 | 51 | 1021.5 |
| 20260906084905 | 66 | 161 | 0.9 | 1.7 | 0.00 | 0.00 | 0.00 | 51 | 1021.5 |
| 20260906084701 | 66 | 161 | 0.9 | 1.7 | 0.00 | 0.00 | 0.00 | 51 | 1021.5 |
| 20260906084551 | 67 | 130 | 0.9 | 1.7 | 0.00 | 0.00 | 0.00 | 51 | 1021.5 |
| 20260906084545 | 66 | 139 | 0.9 | 1.7 | 0.00 | 0.00 | 0.00 | 52 | 1021.5 |
| 20260906084459 | 66 | 131 | 0.9 | 1.7 | 0.00 | 0.00 | 0.00 | 52 | 1021.5 |
| 20260906084301 | 66 | 131 | 0.9 | 1.7 | 0.00 | 0.00 | 0.00 | 52 | 1021.6 |
| 20260906084157 | 66 | 130 | 0.9 | 1.7 | 0.00 | 0.00 | 0.00 | 52 | 1021.6 |
| 20260906084046 | 66 | 130 | 0.9 | 1.7 | 0.00 | 0.00 | 0.00 | 52 | 1021.6 |
| 20260906083855 | 66 | 130 | 0.9 | 1.7 | 0.00 | 0.00 | 0.00 | 51 | 1021.5 |
| 20260906083702 | 66 | 130 | 0.9 | 1.7 | 0.00 | 0.00 | 0.00 | 51 | 1021.5 |
| 20260906083451 | 67 | 130 | 0.9 | 1.7 | 0.00 | 0.00 | 0.00 | 51 | 1021.5 |
| 20260906083251 | 67 | 131 | 0.9 | 1.7 | 0.00 | 0.00 | 0.00 | 50 | 1021.5 |
| 20260906083051 | 67 | 130 | 0.9 | 1.7 | 0.00 | 0.00 | 0.00 | 50 | 1021.5 |
| 20260906083045 | 67 | 130 | 0.9 | 1.7 | 0.00 | 0.00 | 0.00 | 50 | 1021.6 |
| 20260906082849 | 67 | 130 | 0.9 | 1.7 | 0.00 | 0.00 | 0.00 | 50 | 1021.5 |
| 20260906082650 | 67 | 130 | 0.9 | 2.6 | 0.00 | 0.00 | 0.00 | 49 | 1021.6 |
| 20260906082546 | 67 | 130 | 0.9 | 2.6 | 0.00 | 0.00 | 0.00 | 49 | 1021.6 |
| 20260906082449 | 67 | 130 | 0.9 | 2.6 | 0.00 | 0.00 | 0.00 | 49 | 1021.6 |
| 20260906082247 | 67 | 134 | 1.7 | 2.6 | 0.00 | 0.00 | 0.00 | 50 | 1021.6 |
| 20260906082045 | 66 | 113 | 1.7 | 2.6 | 0.00 | 0.00 | 0.00 | 50 | 1021.6 |
| 20260906081846 | 66 | 129 | 1.7 | 2.6 | 0.00 | 0.00 | 0.00 | 53 | 1021.6 |
| 20260906081645 | 66 | 135 | 1.7 | 2.6 | 0.00 | 0.00 | 0.00 | 52 | 1021.6 |
| 20260906081545 | 66 | 127 | 1.7 | 2.6 | 0.00 | 0.00 | 0.00 | 53 | 1021.6 |
| 20260906081446 | 66 | 132 | 0.9 | 2.6 | 0.00 | 0.00 | 0.00 | 53 | 1021.6 |
| 20260906081245 | 66 | 134 | 0.9 | 3.5 | 0.00 | 0.00 | 0.00 | 53 | 1021.6 |
| 20260906081054 | 67 | 166 | 0.9 | 3.5 | 0.00 | 0.00 | 0.00 | 52 | 1021.7 |
| 20260906081045 | 66 | 156 | 0.9 | 3.5 | 0.00 | 0.00 | 0.00 | 53 | 1021.7 |
| 20260906080843 | 66 | 166 | 0.9 | 3.5 | 0.00 | 0.00 | 0.00 | 52 | 1021.7 |
| 20260906080700 | 67 | 166 | 0.9 | 3.5 | 0.00 | 0.00 | 0.00 | 52 | 1021.6 |
| 20260906080443 | 67 | 166 | 0.9 | 3.5 | 0.00 | 0.00 | 0.00 | 52 | 1021.7 |
| 20260906080245 | 67 | 188 | 1.7 | 3.5 | 0.00 | 0.00 | 0.00 | 52 | 1021.7 |
| 20260906080044 | 67 | 154 | 1.7 | 3.5 | 0.00 | 0.00 | 0.00 | 51 | 1021.7 |
| 20260906075843 | 67 | 145 | 1.7 | 3.5 | 0.00 | 0.00 | 0.00 | 51 | 1021.7 |
| 20260906075643 | 67 | 163 | 1.7 | 3.5 | 0.00 | 0.00 | 0.00 | 51 | 1021.8 |
| 20260906075543 | 67 | 165 | 1.7 | 3.5 | 0.00 | 0.00 | 0.00 | 51 | 1021.7 |
| 20260906075443 | 67 | 163 | 1.7 | 3.5 | 0.00 | 0.00 | 0.00 | 51 | 1021.7 |
| 20260906075244 | 67 | 164 | 1.7 | 3.5 | 0.00 | 0.00 | 0.00 | 51 | 1021.8 |
| 20260906075042 | 67 | 180 | 1.7 | 3.5 | 0.00 | 0.00 | 0.00 | 51 | 1021.7 |
| 20260906074844 | 67 | 148 | 1.7 | 3.5 | 0.00 | 0.00 | 0.00 | 51 | 1021.8 |
| 20260906074644 | 67 | 177 | 1.7 | 3.5 | 0.00 | 0.00 | 0.00 | 51 | 1021.7 |
| 20260906074543 | 67 | 157 | 1.7 | 3.5 | 0.00 | 0.00 | 0.00 | 51 | 1021.7 |
| 20260906074444 | 67 | 165 | 1.7 | 3.5 | 0.00 | 0.00 | 0.00 | 51 | 1021.7 |
| 20260906074243 | 67 | 169 | 2.6 | 3.5 | 0.00 | 0.00 | 0.00 | 51 | 1021.7 |
| 20260906074044 | 67 | 166 | 2.6 | 4.3 | 0.00 | 0.00 | 0.00 | 52 | 1021.7 |
| 20260906074039 | 67 | 165 | 2.6 | 4.3 | 0.00 | 0.00 | 0.00 | 52 | 1021.7 |
| 20260906073841 | 67 | 171 | 2.6 | 4.3 | 0.00 | 0.00 | 0.00 | 52 | 1021.7 |
| 20260906073640 | 68 | 180 | 2.6 | 4.3 | 0.00 | 0.00 | 0.00 | 51 | 1021.7 |
| 20260906073544 | 68 | 190 | 2.6 | 4.3 | 0.00 | 0.00 | 0.00 | 51 | 1021.7 |
| 20260906073440 | 68 | 175 | 2.6 | 4.3 | 0.00 | 0.00 | 0.00 | 52 | 1021.7 |
| 20260906073238 | 68 | 180 | 1.7 | 4.3 | 0.00 | 0.00 | 0.00 | 51 | 1021.7 |
| 20260906073043 | 68 | 179 | 1.7 | 4.3 | 0.00 | 0.00 | 0.00 | 51 | 1021.7 |
| 20260906073037 | 68 | 164 | 1.7 | 4.3 | 0.00 | 0.00 | 0.00 | 51 | 1021.7 |
| 20260906072838 | 67 | 178 | 1.7 | 3.5 | 0.00 | 0.00 | 0.00 | 52 | 1021.7 |
| 20260906072637 | 67 | 161 | 0.9 | 3.5 | 0.00 | 0.00 | 0.00 | 52 | 1021.7 |
| 20260906072542 | 67 | 166 | 0.9 | 3.5 | 0.00 | 0.00 | 0.00 | 52 | 1021.7 |
| 20260906072433 | 67 | 150 | 0.9 | 3.5 | 0.00 | 0.00 | 0.00 | 52 | 1021.8 |
| 20260906072233 | 68 | 163 | 0.9 | 3.5 | 0.00 | 0.00 | 0.00 | 51 | 1021.7 |
| 20260906072043 | 68 | 159 | 0.9 | 3.5 | 0.00 | 0.00 | 0.00 | 51 | 1021.7 |
| 20260906072035 | 68 | 172 | 0.9 | 3.5 | 0.00 | 0.00 | 0.00 | 51 | 1021.7 |
| 20260906071833 | 68 | 175 | 0.9 | 2.6 | 0.00 | 0.00 | 0.00 | 51 | 1021.7 |
| 20260906071633 | 68 | 161 | 0.9 | 2.6 | 0.00 | 0.00 | 0.00 | 50 | 1021.7 |
| 20260906071541 | 68 | 158 | 0.9 | 2.6 | 0.00 | 0.00 | 0.00 | 50 | 1021.7 |
| 20260906071433 | 68 | 158 | 0.9 | 2.6 | 0.00 | 0.00 | 0.00 | 50 | 1021.7 |
| 20260906071235 | 68 | 158 | 0.9 | 2.6 | 0.00 | 0.00 | 0.00 | 49 | 1021.7 |
| 20260906071033 | 68 | 166 | 0.9 | 2.6 | 0.00 | 0.00 | 0.00 | 50 | 1021.7 |
| 20260906070833 | 68 | 161 | 1.7 | 3.5 | 0.00 | 0.00 | 0.00 | 50 | 1021.7 |
| 20260906070633 | 68 | 165 | 1.7 | 3.5 | 0.00 | 0.00 | 0.00 | 51 | 1021.6 |
| 20260906070542 | 68 | 167 | 1.7 | 3.5 | 0.00 | 0.00 | 0.00 | 51 | 1021.6 |
| 20260906070431 | 67 | 168 | 1.7 | 3.5 | 0.00 | 0.00 | 0.00 | 51 | 1021.7 |
| 20260906070232 | 67 | 168 | 1.7 | 3.5 | 0.00 | 0.00 | 0.00 | 51 | 1021.6 |
| 20260906070031 | 68 | 167 | 1.7 | 3.5 | 0.00 | 0.00 | 0.00 | 52 | 1021.7 |
| 20260906065829 | 68 | 167 | 1.7 | 3.5 | 0.00 | 0.00 | 0.00 | 51 | 1021.6 |
| 20260906065630 | 68 | 167 | 0.9 | 3.5 | 0.00 | 0.00 | 0.00 | 49 | 1021.6 |
| 20260906065540 | 68 | 167 | 0.9 | 3.5 | 0.00 | 0.00 | 0.00 | 49 | 1021.6 |
| 20260906065429 | 69 | 165 | 0.9 | 3.5 | 0.00 | 0.00 | 0.00 | 49 | 1021.6 |
| 20260906065227 | 69 | 157 | 0.9 | 1.7 | 0.00 | 0.00 | 0.00 | 49 | 1021.6 |
| 20260906065040 | 69 | 123 | 0.0 | 1.7 | 0.00 | 0.00 | 0.00 | 49 | 1021.6 |
| 20260906065028 | 69 | 123 | 0.0 | 1.7 | 0.00 | 0.00 | 0.00 | 48 | 1021.6 |
| 20260906064829 | 69 | 123 | 0.0 | 1.7 | 0.00 | 0.00 | 0.00 | 47 | 1021.6 |
| 20260906064626 | 69 | 104 | 0.0 | 0.9 | 0.00 | 0.00 | 0.00 | 47 | 1021.6 |
| 20260906064539 | 70 | 104 | 0.0 | 0.9 | 0.00 | 0.00 | 0.00 | 46 | 1021.6 |
| 20260906064425 | 70 | 104 | 0.9 | 2.6 | 0.00 | 0.00 | 0.00 | 46 | 1021.6 |
| 20260906064222 | 70 | 104 | 0.9 | 2.6 | 0.00 | 0.00 | 0.00 | 46 | 1021.6 |
| 20260906064019 | 70 | 104 | 0.9 | 2.6 | 0.00 | 0.00 | 0.00 | 45 | 1021.7 |
| 20260906063820 | 70 | 104 | 0.9 | 2.6 | 0.00 | 0.00 | 0.00 | 45 | 1021.7 |
| 20260906063619 | 70 | 104 | 0.9 | 2.6 | 0.00 | 0.00 | 0.00 | 46 | 1021.7 |
| 20260906063539 | 70 | 104 | 0.9 | 2.6 | 0.00 | 0.00 | 0.00 | 46 | 1021.7 |
| 20260906063420 | 70 | 156 | 0.9 | 1.7 | 0.00 | 0.00 | 0.00 | 46 | 1021.7 |
| 20260906063218 | 70 | 156 | 0.9 | 3.5 | 0.00 | 0.00 | 0.00 | 46 | 1021.7 |
| 20260906063017 | 70 | 156 | 0.9 | 3.5 | 0.00 | 0.00 | 0.00 | 46 | 1021.7 |
| 20260906062819 | 70 | 163 | 1.7 | 3.5 | 0.00 | 0.00 | 0.00 | 47 | 1021.7 |
| 20260906062615 | 70 | 163 | 1.7 | 3.5 | 0.00 | 0.00 | 0.00 | 48 | 1021.7 |
| 20260906062539 | 70 | 163 | 1.7 | 3.5 | 0.00 | 0.00 | 0.00 | 48 | 1021.7 |
| 20260906062413 | 69 | 163 | 1.7 | 3.5 | 0.00 | 0.00 | 0.00 | 48 | 1021.7 |
| 20260906062212 | 69 | 194 | 0.9 | 3.5 | 0.00 | 0.00 | 0.00 | 49 | 1021.7 |
| 20260906062011 | 69 | 194 | 0.9 | 3.5 | 0.00 | 0.00 | 0.00 | 49 | 1021.7 |
| 20260906061808 | 69 | 200 | 0.9 | 2.6 | 0.00 | 0.00 | 0.00 | 50 | 1021.7 |
| 20260906061607 | 69 | 9 | 0.9 | 2.6 | 0.00 | 0.00 | 0.00 | 51 | 1021.7 |
| 20260906061537 | 69 | 9 | 0.9 | 2.6 | 0.00 | 0.00 | 0.00 | 51 | 1021.7 |
| 20260906061406 | 69 | 9 | 0.9 | 4.3 | 0.00 | 0.00 | 0.00 | 50 | 1021.7 |
| 20260906061206 | 69 | 17 | 0.9 | 4.3 | 0.00 | 0.00 | 0.00 | 51 | 1021.7 |
| 20260906061035 | 69 | 17 | 0.9 | 4.3 | 0.00 | 0.00 | 0.00 | 51 | 1021.7 |
| 20260906061003 | 69 | 17 | 0.9 | 4.3 | 0.00 | 0.00 | 0.00 | 51 | 1021.7 |
| 20260906060804 | 69 | 265 | 1.7 | 4.3 | 0.00 | 0.00 | 0.00 | 51 | 1021.7 |
| 20260906060600 | 69 | 262 | 1.7 | 4.3 | 0.00 | 0.00 | 0.00 | 51 | 1021.8 |
| 20260906060536 | 69 | 262 | 1.7 | 4.3 | 0.00 | 0.00 | 0.00 | 51 | 1021.8 |
| 20260906060359 | 69 | 262 | 2.6 | 5.2 | 0.00 | 0.00 | 0.00 | 51 | 1021.9 |
| 20260906060159 | 69 | 347 | 2.6 | 7.0 | 0.00 | 0.00 | 0.00 | 51 | 1021.9 |
| 20260906060036 | 69 | 355 | 3.5 | 7.0 | 0.00 | 0.00 | 0.00 | 51 | 1022.1 |
| 20260906060032 | 69 | 332 | 3.5 | 7.8 | 0.00 | 0.00 | 0.00 | 52 | 1022.1 |
| 20260906055958 | 69 | 355 | 3.5 | 7.8 | 0.00 | 0.00 | 0.00 | 50 | 1022.1 |
| 20260906055757 | 69 | 323 | 3.5 | 7.8 | 0.00 | 0.00 | 0.00 | 51 | 1022.1 |
| 20260906055641 | 69 | 315 | 4.3 | 7.8 | 0.00 | 0.00 | 0.00 | 52 | 1021.9 |
| 20260906055356 | 69 | 11 | 3.5 | 7.8 | 0.00 | 0.00 | 0.00 | 51 | 1021.9 |
| 20260906055157 | 70 | 355 | 3.5 | 7.8 | 0.00 | 0.00 | 0.00 | 49 | 1021.9 |
| 20260906055038 | 70 | 292 | 1.7 | 2.6 | 0.00 | 0.00 | 0.00 | 46 | 1021.9 |
| 20260906055031 | 70 | 340 | 2.6 | 7.8 | 0.00 | 0.00 | 0.00 | 48 | 1022.1 |
| 20260906054956 | 70 | 304 | 2.6 | 7.8 | 0.00 | 0.00 | 0.00 | 48 | 1022.1 |
| 20260906054756 | 70 | 296 | 1.7 | 7.8 | 0.00 | 0.00 | 0.00 | 47 | 1022.1 |
| 20260906054645 | 70 | 340 | 1.7 | 2.6 | 0.00 | 0.00 | 0.00 | 46 | 1021.9 |
| 20260906054531 | 70 | 340 | 1.7 | 2.6 | 0.00 | 0.00 | 0.00 | 46 | 1021.9 |
| 20260906054357 | 70 | 334 | 1.7 | 2.6 | 0.00 | 0.00 | 0.00 | 46 | 1021.9 |
| 20260906054156 | 70 | 315 | 0.9 | 2.6 | 0.00 | 0.00 | 0.00 | 46 | 1021.9 |
| 20260906053957 | 70 | 292 | 1.7 | 3.5 | 0.00 | 0.00 | 0.00 | 46 | 1021.9 |
| 20260906053758 | 70 | 270 | 1.7 | 3.5 | 0.00 | 0.00 | 0.00 | 46 | 1021.8 |
| 20260906053556 | 71 | 277 | 1.7 | 6.1 | 0.00 | 0.00 | 0.00 | 46 | 1021.9 |
| 20260906053540 | 71 | 284 | 2.6 | 8.7 | 0.00 | 0.00 | 0.00 | 46 | 1021.9 |
| 20260906053356 | 71 | 332 | 3.5 | 9.6 | 0.00 | 0.00 | 0.00 | 45 | 1021.8 |
| 20260906053157 | 71 | 5 | 4.3 | 11.3 | 0.00 | 0.00 | 0.00 | 43 | 1021.9 |
| 20260906053038 | 73 | 308 | 3.5 | 11.3 | 0.00 | 0.00 | 0.00 | 41 | 1022.1 |
| 20260906053032 | 72 | 5 | 4.3 | 11.3 | 0.00 | 0.00 | 0.00 | 43 | 1021.9 |
| 20260906052955 | 72 | 28 | 4.3 | 11.3 | 0.00 | 0.00 | 0.00 | 42 | 1021.9 |
| 20260906052758 | 72 | 323 | 4.3 | 11.3 | 0.00 | 0.00 | 0.00 | 42 | 1021.9 |
| 20260906052642 | 73 | 325 | 3.5 | 11.3 | 0.00 | 0.00 | 0.00 | 41 | 1022.1 |
| 20260906052356 | 73 | 319 | 2.6 | 11.3 | 0.00 | 0.00 | 0.00 | 40 | 1021.9 |
| 20260906052155 | 74 | 0 | 1.7 | 4.3 | 0.00 | 0.00 | 0.00 | 40 | 1021.8 |
| 20260906052031 | 74 | 22 | 2.6 | 5.2 | 0.00 | 0.00 | 0.00 | 41 | 1021.7 |
| 20260906051957 | 74 | 28 | 2.6 | 5.2 | 0.00 | 0.00 | 0.00 | 42 | 1021.7 |
| 20260906051755 | 74 | 56 | 2.6 | 5.2 | 0.00 | 0.00 | 0.00 | 41 | 1021.7 |
| 20260906051531 | 74 | 63 | 2.6 | 5.2 | 0.00 | 0.00 | 0.00 | 41 | 1021.7 |
| 20260906051353 | 74 | 69 | 2.6 | 5.2 | 0.00 | 0.00 | 0.00 | 40 | 1021.7 |
| 20260906051153 | 74 | 76 | 2.6 | 5.2 | 0.00 | 0.00 | 0.00 | 41 | 1021.7 |
| 20260906051035 | 74 | 69 | 1.7 | 3.5 | 0.00 | 0.00 | 0.00 | 43 | 1021.8 |
| 20260906051029 | 74 | 84 | 2.6 | 3.5 | 0.00 | 0.00 | 0.00 | 41 | 1021.8 |
| 20260906050952 | 74 | 86 | 2.6 | 3.5 | 0.00 | 0.00 | 0.00 | 41 | 1021.8 |
| 20260906050751 | 74 | 80 | 1.7 | 3.5 | 0.00 | 0.00 | 0.00 | 43 | 1021.7 |
| 20260906050639 | 74 | 72 | 1.7 | 3.5 | 0.00 | 0.00 | 0.00 | 43 | 1021.8 |
| 20260906050350 | 73 | 80 | 1.7 | 3.5 | 0.00 | 0.00 | 0.00 | 44 | 1021.9 |
| 20260906050150 | 73 | 88 | 1.7 | 3.5 | 0.00 | 0.00 | 0.00 | 47 | 1021.8 |
| 20260906050030 | 73 | 75 | 1.7 | 3.5 | 0.00 | 0.00 | 0.00 | 48 | 1021.8 |
| 20260906045950 | 73 | 78 | 1.7 | 3.5 | 0.00 | 0.00 | 0.00 | 49 | 1021.8 |
| 20260906045751 | 73 | 86 | 0.9 | 2.6 | 0.00 | 0.00 | 0.00 | 51 | 1021.8 |
| 20260906045529 | 73 | 74 | 0.9 | 1.7 | 0.00 | 0.00 | 0.00 | 53 | 1021.8 |
| 20260906045351 | 73 | 74 | 0.9 | 1.7 | 0.00 | 0.00 | 0.00 | 53 | 1021.8 |
| 20260906045148 | 73 | 74 | 0.9 | 1.7 | 0.00 | 0.00 | 0.00 | 53 | 1021.9 |
| 20260906045027 | 73 | 74 | 0.9 | 1.7 | 0.00 | 0.00 | 0.00 | 53 | 1021.8 |
| 20260906044948 | 73 | 74 | 0.9 | 1.7 | 0.00 | 0.00 | 0.00 | 53 | 1021.9 |
| 20260906044750 | 73 | 74 | 0.9 | 1.7 | 0.00 | 0.00 | 0.00 | 54 | 1021.9 |
| 20260906044546 | 73 | 74 | 0.9 | 1.7 | 0.00 | 0.00 | 0.00 | 53 | 1021.9 |
| 20260906044529 | 73 | 74 | 0.9 | 2.6 | 0.00 | 0.00 | 0.00 | 53 | 1021.9 |
| 20260906044347 | 73 | 74 | 0.9 | 2.6 | 0.00 | 0.00 | 0.00 | 53 | 1021.9 |
| 20260906044145 | 73 | 74 | 1.7 | 3.5 | 0.00 | 0.00 | 0.00 | 53 | 1021.9 |
| 20260906044028 | 73 | 74 | 1.7 | 4.3 | 0.00 | 0.00 | 0.00 | 52 | 1021.8 |
| 20260906043946 | 73 | 74 | 1.7 | 4.3 | 0.00 | 0.00 | 0.00 | 52 | 1021.9 |
| 20260906043746 | 74 | 74 | 2.6 | 4.3 | 0.00 | 0.00 | 0.00 | 52 | 1021.8 |
| 20260906043531 | 74 | 85 | 2.6 | 6.1 | 0.00 | 0.00 | 0.00 | 48 | 1021.8 |
| 20260906043525 | 74 | 74 | 2.6 | 4.3 | 0.00 | 0.00 | 0.00 | 52 | 1021.9 |
| 20260906043345 | 74 | 71 | 2.6 | 4.3 | 0.00 | 0.00 | 0.00 | 51 | 1021.8 |
| 20260906043146 | 74 | 82 | 2.6 | 6.1 | 0.00 | 0.00 | 0.00 | 51 | 1021.8 |
| 20260906042947 | 74 | 91 | 2.6 | 6.1 | 0.00 | 0.00 | 0.00 | 48 | 1021.9 |
| 20260906042746 | 74 | 120 | 2.6 | 6.1 | 0.00 | 0.00 | 0.00 | 52 | 1021.8 |
| 20260906042545 | 74 | 107 | 3.5 | 7.0 | 0.00 | 0.00 | 0.00 | 52 | 1021.8 |
| 20260906042526 | 74 | 86 | 3.5 | 7.0 | 0.00 | 0.00 | 0.00 | 51 | 1021.8 |
| 20260906042347 | 74 | 93 | 3.5 | 7.0 | 0.00 | 0.00 | 0.00 | 52 | 1021.9 |
| 20260906042146 | 74 | 68 | 3.5 | 7.0 | 0.00 | 0.00 | 0.00 | 50 | 1021.9 |
| 20260906042025 | 74 | 70 | 3.5 | 7.0 | 0.00 | 0.00 | 0.00 | 50 | 1021.9 |
| 20260906041944 | 74 | 74 | 2.6 | 7.0 | 0.00 | 0.00 | 0.00 | 50 | 1021.9 |
| 20260906041745 | 74 | 74 | 2.6 | 7.0 | 0.00 | 0.00 | 0.00 | 49 | 1021.9 |
| 20260906041544 | 74 | 74 | 2.6 | 4.3 | 0.00 | 0.00 | 0.00 | 48 | 1021.8 |
| 20260906041525 | 74 | 67 | 2.6 | 4.3 | 0.00 | 0.00 | 0.00 | 48 | 1021.8 |
| 20260906041343 | 74 | 62 | 3.5 | 4.3 | 0.00 | 0.00 | 0.00 | 48 | 1021.8 |
| 20260906041143 | 74 | 78 | 3.5 | 4.3 | 0.00 | 0.00 | 0.00 | 47 | 1021.8 |
| 20260906041026 | 74 | 71 | 2.6 | 4.3 | 0.00 | 0.00 | 0.00 | 47 | 1021.9 |
| 20260906040941 | 74 | 63 | 2.6 | 4.3 | 0.00 | 0.00 | 0.00 | 47 | 1021.9 |
| 20260906040741 | 74 | 73 | 2.6 | 4.3 | 0.00 | 0.00 | 0.00 | 47 | 1021.9 |
| 20260906040537 | 74 | 79 | 1.7 | 4.3 | 0.00 | 0.00 | 0.00 | 46 | 1021.9 |
| 20260906040525 | 74 | 75 | 1.7 | 4.3 | 0.00 | 0.00 | 0.00 | 46 | 1021.9 |
| 20260906040335 | 74 | 69 | 0.9 | 4.3 | 0.00 | 0.00 | 0.00 | 47 | 1021.9 |
| 20260906040135 | 75 | 84 | 0.9 | 3.5 | 0.00 | 0.00 | 0.00 | 42 | 1021.9 |
| 20260906040025 | 75 | 99 | 0.9 | 3.5 | 0.00 | 0.00 | 0.00 | 41 | 1021.8 |
| 20260906035935 | 75 | 99 | 0.9 | 3.5 | 0.00 | 0.00 | 0.00 | 40 | 1021.8 |
| 20260906035735 | 75 | 171 | 0.9 | 5.2 | 0.00 | 0.00 | 0.00 | 40 | 1021.8 |
| 20260906035525 | 75 | 171 | 1.7 | 5.2 | 0.00 | 0.00 | 0.00 | 39 | 1021.8 |
| 20260906035333 | 75 | 171 | 1.7 | 5.2 | 0.00 | 0.00 | 0.00 | 39 | 1021.8 |
| 20260906035133 | 75 | 171 | 2.6 | 6.1 | 0.00 | 0.00 | 0.00 | 39 | 1021.8 |
| 20260906035023 | 75 | 161 | 2.6 | 6.1 | 0.00 | 0.00 | 0.00 | 38 | 1021.8 |
| 20260906034930 | 75 | 161 | 3.5 | 6.1 | 0.00 | 0.00 | 0.00 | 38 | 1021.8 |
| 20260906034729 | 75 | 200 | 3.5 | 7.0 | 0.00 | 0.00 | 0.00 | 39 | 1021.8 |
| 20260906034529 | 75 | 122 | 3.5 | 7.0 | 0.00 | 0.00 | 0.00 | 39 | 1021.9 |
| 20260906034523 | 75 | 139 | 3.5 | 7.0 | 0.00 | 0.00 | 0.00 | 39 | 1021.9 |
| 20260906034329 | 76 | 181 | 3.5 | 7.0 | 0.00 | 0.00 | 0.00 | 40 | 1021.8 |
| 20260906034125 | 76 | 206 | 3.5 | 7.0 | 0.00 | 0.00 | 0.00 | 35 | 1021.8 |
| 20260906034026 | 77 | 172 | 1.7 | 5.2 | 0.00 | 0.00 | 0.00 | 33 | 1021.8 |
| 20260906034021 | 76 | 188 | 2.6 | 7.0 | 0.00 | 0.00 | 0.00 | 35 | 1021.7 |
| 20260906033926 | 77 | 213 | 2.6 | 7.0 | 0.00 | 0.00 | 0.00 | 35 | 1021.8 |
| 20260906033726 | 77 | 198 | 1.7 | 7.0 | 0.00 | 0.00 | 0.00 | 34 | 1021.8 |
| 20260906033627 | 77 | 155 | 1.7 | 5.2 | 0.00 | 0.00 | 0.00 | 33 | 1021.8 |
| 20260906033325 | 76 | 178 | 1.7 | 5.2 | 0.00 | 0.00 | 0.00 | 33 | 1021.8 |
| 20260906033126 | 76 | 155 | 1.7 | 6.1 | 0.00 | 0.00 | 0.00 | 34 | 1021.7 |
| 20260906033017 | 76 | 181 | 1.7 | 6.1 | 0.00 | 0.00 | 0.00 | 34 | 1021.7 |
| 20260906032923 | 76 | 175 | 2.6 | 7.0 | 0.00 | 0.00 | 0.00 | 34 | 1021.7 |
| 20260906032722 | 76 | 65 | 3.5 | 7.8 | 0.00 | 0.00 | 0.00 | 34 | 1021.7 |
| 20260906032516 | 75 | 64 | 4.3 | 9.6 | 0.00 | 0.00 | 0.00 | 34 | 1021.7 |
| 20260906032320 | 75 | 65 | 6.1 | 11.3 | 0.00 | 0.00 | 0.00 | 34 | 1021.8 |
| 20260906032118 | 75 | 77 | 7.0 | 11.3 | 0.00 | 0.00 | 0.00 | 34 | 1021.8 |
| 20260906032016 | 76 | 84 | 7.0 | 11.3 | 0.00 | 0.00 | 0.00 | 34 | 1021.8 |
| 20260906031919 | 76 | 88 | 6.1 | 11.3 | 0.00 | 0.00 | 0.00 | 33 | 1021.8 |
| 20260906031719 | 76 | 89 | 5.2 | 11.3 | 0.00 | 0.00 | 0.00 | 33 | 1021.8 |
| 20260906031519 | 76 | 121 | 4.3 | 11.3 | 0.00 | 0.00 | 0.00 | 33 | 1021.7 |
| 20260906031515 | 76 | 122 | 4.3 | 11.3 | 0.00 | 0.00 | 0.00 | 33 | 1021.7 |
| 20260906031319 | 76 | 125 | 2.6 | 10.4 | 0.00 | 0.00 | 0.00 | 32 | 1021.6 |
| 20260906031118 | 76 | 153 | 1.7 | 7.0 | 0.00 | 0.00 | 0.00 | 32 | 1021.3 |
| 20260906031017 | 77 | 137 | 1.7 | 3.5 | 0.00 | 0.00 | 0.00 | 32 | 1021.2 |
| 20260906030917 | 77 | 132 | 1.7 | 3.5 | 0.00 | 0.00 | 0.00 | 32 | 1021.1 |
| 20260906030719 | 77 | 178 | 1.7 | 3.5 | 0.00 | 0.00 | 0.00 | 32 | 1021.0 |
| 20260906030515 | 77 | 163 | 1.7 | 7.0 | 0.00 | 0.00 | 0.00 | 32 | 1020.9 |
| 20260906030318 | 77 | 103 | 3.5 | 8.7 | 0.00 | 0.00 | 0.00 | 32 | 1020.9 |
| 20260906030117 | 77 | 68 | 3.5 | 11.3 | 0.00 | 0.00 | 0.00 | 32 | 1020.9 |
| 20260906030023 | 77 | 190 | 2.6 | 3.5 | 0.00 | 0.00 | 0.00 | 31 | 1020.5 |
| 20260906030015 | 77 | 34 | 3.5 | 11.3 | 0.00 | 0.00 | 0.00 | 31 | 1021.0 |
| 20260906025916 | 77 | 32 | 3.5 | 11.3 | 0.00 | 0.00 | 0.00 | 32 | 1021.0 |
| 20260906025714 | 77 | 5 | 3.5 | 11.3 | 0.00 | 0.00 | 0.00 | 31 | 1020.9 |
| 20260906025511 | 77 | 319 | 3.5 | 11.3 | 0.00 | 0.00 | 0.00 | 31 | 1020.9 |
| 20260906025312 | 77 | 315 | 2.6 | 11.3 | 0.00 | 0.00 | 0.00 | 31 | 1020.7 |
| 20260906025130 | 77 | 186 | 2.6 | 3.5 | 0.00 | 0.00 | 0.00 | 31 | 1020.4 |
| 20260906024910 | 78 | 183 | 2.6 | 3.5 | 0.00 | 0.00 | 0.00 | 31 | 1020.4 |
| 20260906024710 | 78 | 186 | 2.6 | 4.3 | 0.00 | 0.00 | 0.00 | 31 | 1020.4 |
| 20260906024517 | 78 | 176 | 2.6 | 4.3 | 0.00 | 0.00 | 0.00 | 31 | 1020.4 |
| 20260906024509 | 78 | 181 | 2.6 | 4.3 | 0.00 | 0.00 | 0.00 | 31 | 1020.4 |
| 20260906024308 | 77 | 167 | 2.6 | 4.3 | 0.00 | 0.00 | 0.00 | 31 | 1020.4 |
| 20260906024108 | 77 | 165 | 2.6 | 4.3 | 0.00 | 0.00 | 0.00 | 31 | 1020.3 |
| 20260906024020 | 77 | 172 | 2.6 | 4.3 | 0.00 | 0.00 | 0.00 | 30 | 1020.1 |
| 20260906024016 | 77 | 168 | 2.6 | 4.3 | 0.00 | 0.00 | 0.00 | 31 | 1020.3 |
| 20260906023908 | 77 | 168 | 2.6 | 4.3 | 0.00 | 0.00 | 0.00 | 31 | 1020.3 |
| 20260906023709 | 77 | 170 | 2.6 | 4.3 | 0.00 | 0.00 | 0.00 | 30 | 1020.3 |
| 20260906023634 | 77 | 209 | 1.7 | 3.5 | 0.00 | 0.00 | 0.00 | 30 | 1020.3 |
| 20260906023509 | 77 | 161 | 2.6 | 4.3 | 0.00 | 0.00 | 0.00 | 30 | 1020.1 |
| 20260906023306 | 77 | 171 | 2.6 | 4.3 | 0.00 | 0.00 | 0.00 | 30 | 1020.3 |
| 20260906023132 | 77 | 168 | 2.6 | 3.5 | 0.00 | 0.00 | 0.00 | 30 | 1020.1 |
| 20260906023014 | 77 | 176 | 2.6 | 3.5 | 0.00 | 0.00 | 0.00 | 30 | 1020.3 |
| 20260906022907 | 77 | 182 | 1.7 | 3.5 | 0.00 | 0.00 | 0.00 | 30 | 1020.3 |
| 20260906022703 | 77 | 202 | 1.7 | 3.5 | 0.00 | 0.00 | 0.00 | 30 | 1020.3 |
| 20260906022634 | 78 | 111 | 1.7 | 2.6 | 0.00 | 0.00 | 0.00 | 30 | 1020.1 |
| 20260906022503 | 77 | 220 | 1.7 | 3.5 | 0.00 | 0.00 | 0.00 | 30 | 1020.3 |
| 20260906022301 | 77 | 237 | 0.9 | 3.5 | 0.00 | 0.00 | 0.00 | 29 | 1020.3 |
| 20260906022131 | 78 | 111 | 0.9 | 1.7 | 0.00 | 0.00 | 0.00 | 29 | 1020.3 |
| 20260906022013 | 78 | 111 | 0.9 | 1.7 | 0.00 | 0.00 | 0.00 | 29 | 1020.3 |
| 20260906021857 | 78 | 111 | 0.9 | 1.7 | 0.00 | 0.00 | 0.00 | 29 | 1020.3 |
| 20260906021659 | 78 | 111 | 0.9 | 1.7 | 0.00 | 0.00 | 0.00 | 29 | 1020.3 |
| 20260906021514 | 78 | 111 | 0.9 | 1.7 | 0.00 | 0.00 | 0.00 | 29 | 1020.1 |
| 20260906021457 | 78 | 111 | 0.9 | 1.7 | 0.00 | 0.00 | 0.00 | 29 | 1020.1 |
| 20260906021257 | 78 | 111 | 1.7 | 2.6 | 0.00 | 0.00 | 0.00 | 29 | 1020.1 |
| 20260906021127 | 78 | 111 | 1.7 | 2.6 | 0.00 | 0.00 | 0.00 | 29 | 1020.1 |
| 20260906020857 | 78 | 111 | 1.7 | 2.6 | 0.00 | 0.00 | 0.00 | 30 | 1020.1 |
| 20260906020657 | 78 | 116 | 1.7 | 2.6 | 0.00 | 0.00 | 0.00 | 29 | 1020.1 |
| 20260906020515 | 78 | 113 | 1.7 | 2.6 | 0.00 | 0.00 | 0.00 | 29 | 1020.0 |
| 20260906020455 | 78 | 110 | 1.7 | 2.6 | 0.00 | 0.00 | 0.00 | 29 | 1020.0 |
| 20260906020254 | 78 | 107 | 1.7 | 2.6 | 0.00 | 0.00 | 0.00 | 29 | 1020.0 |
| 20260906020052 | 78 | 128 | 1.7 | 2.6 | 0.00 | 0.00 | 0.00 | 29 | 1020.0 |
| 20260906020019 | 79 | 111 | 1.7 | 2.6 | 0.00 | 0.00 | 0.00 | 29 | 1020.0 |
| 20260906020013 | 78 | 123 | 1.7 | 2.6 | 0.00 | 0.00 | 0.00 | 29 | 1020.0 |
| 20260906015852 | 78 | 119 | 1.7 | 2.6 | 0.00 | 0.00 | 0.00 | 29 | 1020.0 |
| 20260906015652 | 79 | 125 | 1.7 | 2.6 | 0.00 | 0.00 | 0.00 | 29 | 1019.9 |
| 20260906015453 | 79 | 111 | 1.7 | 2.6 | 0.00 | 0.00 | 0.00 | 29 | 1020.0 |
| 20260906015252 | 79 | 107 | 1.7 | 2.6 | 0.00 | 0.00 | 0.00 | 29 | 1019.9 |
| 20260906015052 | 79 | 119 | 1.7 | 3.5 | 0.00 | 0.00 | 0.00 | 29 | 1019.9 |
| 20260906015013 | 79 | 126 | 1.7 | 3.5 | 0.00 | 0.00 | 0.00 | 29 | 1019.9 |
| 20260906014853 | 79 | 111 | 1.7 | 3.5 | 0.00 | 0.00 | 0.00 | 29 | 1019.8 |
| 20260906014653 | 79 | 119 | 1.7 | 3.5 | 0.00 | 0.00 | 0.00 | 29 | 1019.9 |
| 20260906014511 | 79 | 125 | 1.7 | 3.5 | 0.00 | 0.00 | 0.00 | 29 | 1019.8 |
| 20260906014450 | 79 | 107 | 1.7 | 3.5 | 0.00 | 0.00 | 0.00 | 29 | 1019.8 |
| 20260906014249 | 79 | 119 | 1.7 | 5.2 | 0.00 | 0.00 | 0.00 | 29 | 1019.9 |
| 20260906014050 | 79 | 105 | 2.6 | 5.2 | 0.00 | 0.00 | 0.00 | 29 | 1019.8 |
| 20260906014012 | 79 | 123 | 2.6 | 5.2 | 0.00 | 0.00 | 0.00 | 29 | 1019.8 |
| 20260906013850 | 79 | 141 | 2.6 | 5.2 | 0.00 | 0.00 | 0.00 | 29 | 1019.8 |
| 20260906013649 | 80 | 107 | 2.6 | 5.2 | 0.00 | 0.00 | 0.00 | 28 | 1019.8 |
| 20260906013511 | 80 | 101 | 2.6 | 5.2 | 0.00 | 0.00 | 0.00 | 28 | 1019.8 |
| 20260906013447 | 80 | 100 | 2.6 | 5.2 | 0.00 | 0.00 | 0.00 | 28 | 1019.8 |
| 20260906013249 | 80 | 100 | 1.7 | 5.2 | 0.00 | 0.00 | 0.00 | 28 | 1019.8 |
| 20260906013047 | 80 | 126 | 1.7 | 3.5 | 0.00 | 0.00 | 0.00 | 28 | 1019.6 |
| 20260906013011 | 80 | 104 | 1.7 | 3.5 | 0.00 | 0.00 | 0.00 | 28 | 1019.6 |
| 20260906012848 | 80 | 111 | 1.7 | 3.5 | 0.00 | 0.00 | 0.00 | 28 | 1019.6 |
| 20260906012647 | 80 | 119 | 1.7 | 3.5 | 0.00 | 0.00 | 0.00 | 28 | 1019.8 |
| 20260906012511 | 80 | 134 | 1.7 | 3.5 | 0.00 | 0.00 | 0.00 | 28 | 1019.6 |
| 20260906012445 | 80 | 147 | 1.7 | 3.5 | 0.00 | 0.00 | 0.00 | 28 | 1019.6 |
| 20260906012245 | 80 | 109 | 1.7 | 3.5 | 0.00 | 0.00 | 0.00 | 28 | 1019.6 |
| 20260906012047 | 80 | 123 | 1.7 | 3.5 | 0.00 | 0.00 | 0.00 | 28 | 1019.6 |
| 20260906012016 | 80 | 175 | 3.5 | 7.0 | 0.00 | 0.00 | 0.00 | 28 | 1019.6 |
| 20260906012011 | 80 | 123 | 1.7 | 4.3 | 0.00 | 0.00 | 0.00 | 28 | 1019.6 |
| 20260906011845 | 80 | 123 | 1.7 | 5.2 | 0.00 | 0.00 | 0.00 | 28 | 1019.6 |
| 20260906011645 | 80 | 134 | 1.7 | 5.2 | 0.00 | 0.00 | 0.00 | 28 | 1019.8 |
| 20260906011445 | 80 | 179 | 3.5 | 8.7 | 0.00 | 0.00 | 0.00 | 28 | 1019.6 |
| 20260906011246 | 80 | 157 | 3.5 | 8.7 | 0.00 | 0.00 | 0.00 | 27 | 1019.6 |
| 20260906011045 | 81 | 151 | 4.3 | 8.7 | 0.00 | 0.00 | 0.00 | 28 | 1019.6 |
| 20260906011009 | 81 | 165 | 4.3 | 8.7 | 0.00 | 0.00 | 0.00 | 28 | 1019.6 |
| 20260906010845 | 81 | 164 | 4.3 | 8.7 | 0.00 | 0.00 | 0.00 | 27 | 1019.6 |
| 20260906010645 | 81 | 150 | 4.3 | 8.7 | 0.00 | 0.00 | 0.00 | 27 | 1019.6 |
| 20260906010509 | 81 | 196 | 3.5 | 8.7 | 0.00 | 0.00 | 0.00 | 27 | 1019.6 |
| 20260906010445 | 81 | 190 | 3.5 | 7.0 | 0.00 | 0.00 | 0.00 | 27 | 1019.6 |
| 20260906010245 | 81 | 200 | 3.5 | 6.1 | 0.00 | 0.00 | 0.00 | 27 | 1019.6 |
| 20260906010046 | 81 | 199 | 3.5 | 7.0 | 0.00 | 0.00 | 0.00 | 27 | 1019.6 |
| 20260906010010 | 81 | 179 | 3.5 | 7.0 | 0.00 | 0.00 | 0.00 | 27 | 1019.6 |
| 20260906005847 | 82 | 196 | 4.3 | 7.0 | 0.00 | 0.00 | 0.00 | 27 | 1019.6 |
| 20260906005647 | 82 | 213 | 4.3 | 7.0 | 0.00 | 0.00 | 0.00 | 27 | 1019.8 |
| 20260906005510 | 82 | 213 | 5.2 | 7.0 | 0.00 | 0.00 | 0.00 | 27 | 1019.8 |
| 20260906005447 | 82 | 199 | 5.2 | 7.8 | 0.00 | 0.00 | 0.00 | 27 | 1019.6 |
| 20260906005246 | 82 | 195 | 5.2 | 9.6 | 0.00 | 0.00 | 0.00 | 27 | 1019.8 |
| 20260906005045 | 82 | 215 | 6.1 | 10.4 | 0.00 | 0.00 | 0.00 | 27 | 1019.8 |
| 20260906005014 | 82 | 213 | 7.0 | 12.2 | 0.00 | 0.00 | 0.00 | 26 | 1019.8 |
| 20260906005008 | 82 | 200 | 6.1 | 10.4 | 0.00 | 0.00 | 0.00 | 27 | 1019.8 |
| 20260906004845 | 82 | 225 | 6.1 | 12.2 | 0.00 | 0.00 | 0.00 | 26 | 1019.8 |
| 20260906004645 | 82 | 207 | 7.0 | 12.2 | 0.00 | 0.00 | 0.00 | 26 | 1019.8 |
| 20260906004447 | 82 | 209 | 7.0 | 12.2 | 0.00 | 0.00 | 0.00 | 26 | 1019.8 |
| 20260906004245 | 83 | 205 | 7.0 | 12.2 | 0.00 | 0.00 | 0.00 | 27 | 1019.8 |
| 20260906004045 | 83 | 202 | 7.0 | 12.2 | 0.00 | 0.00 | 0.00 | 26 | 1019.8 |
| 20260906004010 | 83 | 211 | 7.0 | 12.2 | 0.00 | 0.00 | 0.00 | 26 | 1019.8 |
| 20260906003846 | 83 | 187 | 7.0 | 11.3 | 0.00 | 0.00 | 0.00 | 26 | 1019.8 |
| 20260906003645 | 83 | 206 | 7.0 | 13.0 | 0.00 | 0.00 | 0.00 | 26 | 1019.8 |
| 20260906003508 | 83 | 196 | 7.0 | 13.0 | 0.00 | 0.00 | 0.00 | 26 | 1019.8 |
| 20260906003445 | 83 | 190 | 7.0 | 13.0 | 0.00 | 0.00 | 0.00 | 25 | 1019.8 |
| 20260906003245 | 83 | 189 | 7.0 | 13.0 | 0.00 | 0.00 | 0.00 | 25 | 1019.8 |
| 20260906003045 | 84 | 201 | 6.1 | 13.0 | 0.00 | 0.00 | 0.00 | 25 | 1019.8 |
| 20260906003005 | 84 | 200 | 6.1 | 13.0 | 0.00 | 0.00 | 0.00 | 25 | 1019.8 |
| 20260906002845 | 84 | 219 | 6.1 | 13.0 | 0.00 | 0.00 | 0.00 | 25 | 1019.8 |
| 20260906002645 | 84 | 206 | 5.2 | 12.2 | 0.00 | 0.00 | 0.00 | 26 | 1019.6 |
| 20260906002504 | 84 | 226 | 4.3 | 9.6 | 0.00 | 0.00 | 0.00 | 26 | 1019.6 |
| 20260906002444 | 84 | 213 | 4.3 | 9.6 | 0.00 | 0.00 | 0.00 | 26 | 1019.6 |
| 20260906002244 | 84 | 171 | 5.2 | 9.6 | 0.00 | 0.00 | 0.00 | 25 | 1019.8 |
| 20260906002045 | 84 | 198 | 6.1 | 9.6 | 0.00 | 0.00 | 0.00 | 25 | 1019.8 |
| 20260906002005 | 84 | 175 | 6.1 | 9.6 | 0.00 | 0.00 | 0.00 | 25 | 1019.8 |
| 20260906001844 | 84 | 174 | 6.1 | 9.6 | 0.00 | 0.00 | 0.00 | 25 | 1019.8 |
| 20260906001643 | 84 | 209 | 6.1 | 9.6 | 0.00 | 0.00 | 0.00 | 25 | 1019.8 |
| 20260906001506 | 84 | 153 | 6.1 | 9.6 | 0.00 | 0.00 | 0.00 | 25 | 1019.8 |
| 20260906001443 | 84 | 166 | 6.1 | 9.6 | 0.00 | 0.00 | 0.00 | 25 | 1019.8 |
| 20260906001243 | 85 | 214 | 5.2 | 9.6 | 0.00 | 0.00 | 0.00 | 25 | 1019.8 |
| 20260906001043 | 85 | 153 | 5.2 | 9.6 | 0.00 | 0.00 | 0.00 | 25 | 1019.8 |
| 20260906001003 | 85 | 171 | 5.2 | 9.6 | 0.00 | 0.00 | 0.00 | 25 | 1019.8 |
| 20260906000845 | 85 | 211 | 5.2 | 9.6 | 0.00 | 0.00 | 0.00 | 25 | 1019.8 |
| 20260906000644 | 85 | 153 | 4.3 | 9.6 | 0.00 | 0.00 | 0.00 | 25 | 1019.9 |
| 20260906000508 | 85 | 198 | 4.3 | 8.7 | 0.00 | 0.00 | 0.00 | 25 | 1019.6 |
| 20260906000503 | 85 | 170 | 4.3 | 8.7 | 0.00 | 0.00 | 0.00 | 25 | 1019.8 |
| 20260906000444 | 85 | 182 | 4.3 | 8.7 | 0.00 | 0.00 | 0.00 | 25 | 1019.8 |
| 20260906000245 | 85 | 191 | 4.3 | 8.7 | 0.00 | 0.00 | 0.00 | 25 | 1019.8 |
| 20260906000116 | 85 | 213 | 4.3 | 8.7 | 0.00 | 0.00 | 0.00 | 25 | 1019.6 |
| 20260905235844 | 85 | 164 | 5.2 | 9.6 | 0.00 | 0.00 | 0.00 | 25 | 1019.6 |
| 20260905235644 | 85 | 141 | 5.2 | 9.6 | 0.00 | 0.00 | 0.00 | 25 | 1019.8 |
| 20260905235503 | 85 | 194 | 5.2 | 9.6 | 0.00 | 0.00 | 0.00 | 25 | 1019.6 |
| 20260905235443 | 85 | 160 | 5.2 | 9.6 | 0.00 | 0.00 | 0.00 | 25 | 1019.6 |
| 20260905235243 | 85 | 212 | 5.2 | 9.6 | 0.00 | 0.00 | 0.00 | 26 | 1019.6 |
| 20260905235042 | 85 | 183 | 5.2 | 9.6 | 0.00 | 0.00 | 0.00 | 25 | 1019.6 |
| 20260905235004 | 85 | 180 | 5.2 | 10.4 | 0.00 | 0.00 | 0.00 | 25 | 1019.6 |
| 20260905234843 | 85 | 165 | 5.2 | 10.4 | 0.00 | 0.00 | 0.00 | 25 | 1019.6 |
| 20260905234644 | 85 | 150 | 5.2 | 11.3 | 0.00 | 0.00 | 0.00 | 25 | 1019.5 |
| 20260905234501 | 86 | 178 | 6.1 | 11.3 | 0.00 | 0.00 | 0.00 | 24 | 1019.6 |
| 20260905234444 | 86 | 191 | 6.1 | 11.3 | 0.00 | 0.00 | 0.00 | 24 | 1019.6 |
| 20260905234241 | 87 | 194 | 6.1 | 11.3 | 0.00 | 0.00 | 0.00 | 24 | 1019.6 |
| 20260905234041 | 87 | 188 | 6.1 | 11.3 | 0.00 | 0.00 | 0.00 | 24 | 1019.6 |
| 20260905234002 | 87 | 114 | 6.1 | 11.3 | 0.00 | 0.00 | 0.00 | 23 | 1019.6 |
| 20260905233841 | 87 | 174 | 6.1 | 11.3 | 0.00 | 0.00 | 0.00 | 24 | 1019.6 |
| 20260905233642 | 87 | 189 | 6.1 | 10.4 | 0.00 | 0.00 | 0.00 | 25 | 1019.5 |
| 20260905233501 | 87 | 159 | 6.1 | 12.2 | 0.00 | 0.00 | 0.00 | 24 | 1019.5 |
| 20260905233440 | 87 | 162 | 6.1 | 12.2 | 0.00 | 0.00 | 0.00 | 24 | 1019.6 |
| 20260905233236 | 87 | 189 | 7.0 | 12.2 | 0.00 | 0.00 | 0.00 | 24 | 1019.6 |
| 20260905233039 | 87 | 180 | 7.8 | 15.6 | 0.00 | 0.00 | 0.00 | 23 | 1019.5 |
| 20260905233008 | 87 | 191 | 7.8 | 15.6 | 0.00 | 0.00 | 0.00 | 22 | 1019.5 |
| 20260905233002 | 86 | 198 | 7.8 | 15.6 | 0.00 | 0.00 | 0.00 | 23 | 1019.5 |
| 20260905232839 | 86 | 201 | 8.7 | 15.6 | 0.00 | 0.00 | 0.00 | 23 | 1019.5 |
| 20260905232637 | 87 | 191 | 7.8 | 15.6 | 0.00 | 0.00 | 0.00 | 22 | 1019.5 |
| 20260905232437 | 87 | 193 | 7.8 | 15.6 | 0.00 | 0.00 | 0.00 | 23 | 1019.5 |
| 20260905232237 | 87 | 199 | 7.0 | 15.6 | 0.00 | 0.00 | 0.00 | 22 | 1019.5 |
| 20260905232039 | 87 | 182 | 7.0 | 13.0 | 0.00 | 0.00 | 0.00 | 22 | 1019.5 |
| 20260905232006 | 87 | 198 | 6.1 | 13.0 | 0.00 | 0.00 | 0.00 | 23 | 1019.6 |
| 20260905232000 | 87 | 184 | 7.0 | 13.0 | 0.00 | 0.00 | 0.00 | 22 | 1019.5 |
| 20260905231838 | 87 | 178 | 6.1 | 13.0 | 0.00 | 0.00 | 0.00 | 22 | 1019.5 |
| 20260905231638 | 87 | 161 | 6.1 | 13.0 | 0.00 | 0.00 | 0.00 | 23 | 1019.6 |
| 20260905231438 | 87 | 171 | 6.1 | 13.0 | 0.00 | 0.00 | 0.00 | 23 | 1019.6 |
| 20260905231238 | 87 | 142 | 7.0 | 13.0 | 0.00 | 0.00 | 0.00 | 23 | 1019.6 |
| 20260905231037 | 86 | 124 | 7.0 | 13.0 | 0.00 | 0.00 | 0.00 | 24 | 1019.5 |
| 20260905231000 | 86 | 104 | 7.0 | 13.0 | 0.00 | 0.00 | 0.00 | 24 | 1019.5 |
| 20260905230837 | 86 | 74 | 7.0 | 10.4 | 0.00 | 0.00 | 0.00 | 24 | 1019.5 |
| 20260905230639 | 86 | 96 | 6.1 | 10.4 | 0.00 | 0.00 | 0.00 | 22 | 1019.5 |
| 20260905230457 | 86 | 76 | 5.2 | 10.4 | 0.00 | 0.00 | 0.00 | 22 | 1019.5 |
| 20260905230437 | 86 | 68 | 5.2 | 10.4 | 0.00 | 0.00 | 0.00 | 22 | 1019.5 |
| 20260905230237 | 86 | 92 | 4.3 | 10.4 | 0.00 | 0.00 | 0.00 | 24 | 1019.5 |
| 20260905230038 | 86 | 79 | 3.5 | 8.7 | 0.00 | 0.00 | 0.00 | 23 | 1019.5 |
| 20260905225956 | 85 | 89 | 3.5 | 8.7 | 0.00 | 0.00 | 0.00 | 23 | 1019.5 |
| 20260905225837 | 86 | 74 | 3.5 | 7.0 | 0.00 | 0.00 | 0.00 | 23 | 1019.5 |
| 20260905225635 | 86 | 97 | 3.5 | 7.8 | 0.00 | 0.00 | 0.00 | 22 | 1019.5 |
| 20260905225455 | 86 | 122 | 3.5 | 7.8 | 0.00 | 0.00 | 0.00 | 23 | 1019.5 |
| 20260905225436 | 86 | 123 | 3.5 | 7.8 | 0.00 | 0.00 | 0.00 | 24 | 1019.5 |
| 20260905225235 | 86 | 103 | 3.5 | 7.8 | 0.00 | 0.00 | 0.00 | 22 | 1019.5 |
| 20260905225035 | 87 | 110 | 3.5 | 7.8 | 0.00 | 0.00 | 0.00 | 23 | 1019.5 |
| 20260905224956 | 87 | 97 | 3.5 | 7.8 | 0.00 | 0.00 | 0.00 | 23 | 1019.5 |
| 20260905224835 | 87 | 98 | 3.5 | 9.6 | 0.00 | 0.00 | 0.00 | 23 | 1019.5 |
| 20260905224634 | 86 | 115 | 4.3 | 9.6 | 0.00 | 0.00 | 0.00 | 24 | 1019.5 |
| 20260905224454 | 86 | 109 | 4.3 | 9.6 | 0.00 | 0.00 | 0.00 | 23 | 1019.5 |
| 20260905224435 | 86 | 99 | 4.3 | 9.6 | 0.00 | 0.00 | 0.00 | 23 | 1019.5 |
| 20260905224235 | 86 | 146 | 5.2 | 9.6 | 0.00 | 0.00 | 0.00 | 23 | 1019.5 |
| 20260905224035 | 86 | 93 | 5.2 | 9.6 | 0.00 | 0.00 | 0.00 | 24 | 1019.5 |
| 20260905223956 | 86 | 92 | 5.2 | 9.6 | 0.00 | 0.00 | 0.00 | 23 | 1019.5 |
| 20260905223836 | 85 | 174 | 5.2 | 10.4 | 0.00 | 0.00 | 0.00 | 24 | 1019.4 |
| 20260905223634 | 85 | 81 | 4.3 | 10.4 | 0.00 | 0.00 | 0.00 | 24 | 1019.5 |
| 20260905223455 | 85 | 57 | 4.3 | 10.4 | 0.00 | 0.00 | 0.00 | 24 | 1019.5 |
| 20260905223436 | 85 | 25 | 4.3 | 10.4 | 0.00 | 0.00 | 0.00 | 24 | 1019.5 |
| 20260905223234 | 85 | 69 | 3.5 | 10.4 | 0.00 | 0.00 | 0.00 | 24 | 1019.5 |
| 20260905223034 | 85 | 80 | 3.5 | 10.4 | 0.00 | 0.00 | 0.00 | 25 | 1019.6 |
| 20260905223000 | 85 | 15 | 2.6 | 7.0 | 0.00 | 0.00 | 0.00 | 24 | 1019.6 |
| 20260905222954 | 85 | 32 | 3.5 | 10.4 | 0.00 | 0.00 | 0.00 | 25 | 1019.6 |
| 20260905222835 | 85 | 0 | 2.6 | 10.4 | 0.00 | 0.00 | 0.00 | 24 | 1019.5 |
| 20260905222636 | 85 | 49 | 2.6 | 7.0 | 0.00 | 0.00 | 0.00 | 24 | 1019.6 |